GFSFLT1_sfc_dewp_000.txt.gz
Dewpoint
64 61 60 59 59 59 59 61 60 59 60 59 60 60 57 57 52 57 59 60 61 60 59 60 61 60 60 58 55 55 56 55 57
65 62 60 60 60 60 60 59 60 61 60 60 60 61 59 53 51 55 58 58 60 60 59 58 59 58 58 58 56 56 55 55 56
63 62 61 61 60 61 61 61 60 59 60 61 60 61 61 54 50 51 56 58 61 61 60 59 58 58 57 57 57 56 55 56 56
63 63 63 62 61 61 63 63 62 60 60 60 61 62 63 55 52 50 55 59 62 61 60 60 60 59 58 57 58 57 56 55 55
65 65 65 63 62 61 62 63 62 61 60 59 60 62 63 58 55 52 51 59 62 62 60 60 60 60 59 58 57 58 57 57 56
62 63 65 64 63 62 61 62 62 62 62 62 61 62 59 57 56 54 55 57 61 61 62 60 60 60 59 59 59 57 58 58 57
61 62 64 64 64 64 62 62 63 62 57 55 57 57 57 57 56 56 60 59 59 60 61 61 61 60 59 59 59 59 58 58 57
59 59 59 59 61 61 61 60 59 57 56 54 54 53 53 54 56 57 60 61 60 59 60 61 63 61 61 59 59 59 59 58 58
57 57 57 57 58 58 58 58 58 56 55 54 53 52 51 51 52 53 57 59 60 59 58 60 62 64 63 62 60 61 61 60 60
57 57 57 57 57 57 58 57 57 57 56 55 53 53 52 51 50 50 53 56 57 58 58 58 60 61 65 64 64 63 62 62 62
58 57 57 56 57 58 58 57 57 57 56 55 54 54 53 51 50 49 49 54 56 58 59 60 58 59 61 65 65 64 64 63 63
58 58 58 57 57 57 57 57 56 56 56 55 54 54 53 51 49 48 48 50 55 57 59 59 59 60 59 61 64 64 64 64 64
57 58 58 57 56 56 55 55 54 54 53 53 53 53 52 51 50 49 47 47 46 49 54 57 58 61 61 60 63 64 63 63 63
57 57 57 56 56 55 54 54 53 53 53 52 52 51 51 50 50 49 49 48 48 46 49 54 56 58 60 60 61 63 63 62 62
56 56 56 55 55 55 55 54 54 54 54 53 53 53 52 52 51 51 51 51 50 48 47 48 50 55 57 59 61 63 63 62 62
56 55 55 55 55 55 56 55 54 54 55 53 54 54 54 53 53 53 52 52 52 51 50 49 49 49 55 57 58 60 62 63 63
55 57 57 57 57 57 56 56 56 56 56 54 55 53 54 54 54 54 53 53 53 53 52 51 49 49 49 50 55 58 59 60 61
45 46 48 50 54 55 56 56 57 56 57 56 55 52 51 54 54 52 53 53 53 53 53 53 52 51 50 52 52 55 57 58 60
43 43 43 44 46 46 48 47 53 54 53 55 57 57 56 53 52 54 54 53 52 53 53 53 53 52 52 52 52 53 55 57 59
41 41 42 42 43 44 45 46 46 48 50 50 52 52 53 53 52 49 50 51 53 55 54 53 53 53 52 52 52 55 57 58 60

GFSFLT1_sfc_dewp_003.txt.gz
Dewpoint
62 63 61 59 60 60 60 60 61 61 61 61 61 61 60 60 56 57 60 61 60 61 60 61 62 63 62 61 59 57 57 56 57
64 64 61 60 60 60 60 60 60 60 61 62 61 60 62 57 55 54 59 60 63 62 60 60 60 61 61 60 59 57 57 56 57
66 65 62 61 60 60 61 61 62 61 60 60 61 61 61 57 56 53 55 60 63 61 61 60 60 59 59 59 59 58 56 56 57
64 64 63 62 62 62 60 64 64 63 62 61 61 62 63 59 59 55 51 56 62 62 62 61 61 60 60 59 58 59 58 57 57
65 66 65 64 63 63 61 62 64 63 62 62 62 62 63 58 60 59 57 57 58 62 62 62 61 61 61 60 59 58 59 58 58
63 64 65 65 64 63 62 62 62 63 63 62 62 62 54 55 56 58 60 62 60 59 61 62 62 62 61 60 60 60 59 59 59
62 62 63 64 64 65 64 63 63 63 59 59 59 56 55 54 55 55 60 62 63 60 59 60 61 62 63 61 61 60 60 59 59
62 62 62 62 62 61 61 60 59 60 59 59 58 57 56 54 54 55 59 60 61 61 60 59 60 61 63 64 62 61 61 61 60
61 61 61 61 61 61 61 59 59 59 59 58 58 57 56 55 53 54 57 59 59 58 59 60 59 60 62 63 65 64 63 63 63
61 60 60 60 61 60 59 59 58 58 57 57 57 56 56 55 54 53 56 57 59 59 57 58 59 59 59 63 65 65 65 64 63
61 60 60 60 59 59 59 58 58 58 57 57 57 56 55 55 54 54 54 56 58 59 60 59 59 60 60 60 64 65 66 65 65
61 60 60 59 59 59 58 58 58 57 57 56 56 56 55 55 55 54 53 53 56 57 60 61 61 60 60 61 62 63 64 65 65
60 59 59 59 58 58 57 57 56 56 55 55 55 55 55 55 54 54 54 53 52 54 57 59 60 61 61 61 62 63 62 62 64
58 58 58 58 58 57 57 57 56 56 56 56 56 56 55 54 53 53 53 53 53 53 54 56 57 60 62 61 62 64 63 63 63
58 57 57 57 57 57 57 57 57 56 56 55 55 56 57 56 55 54 53 53 54 53 53 53 53 56 57 59 61 64 64 63 63
48 48 47 48 50 51 52 54 55 55 56 56 55 55 56 56 56 56 55 55 55 54 54 54 53 53 57 57 59 60 62 64 64
41 42 42 43 44 44 46 47 47 47 49 53 54 52 51 53 56 56 56 56 56 55 55 54 54 54 54 55 57 58 60 61 62
40 40 40 41 42 42 44 45 45 45 45 47 48 48 46 49 48 53 55 56 55 56 56 55 55 55 55 55 55 56 57 59 61
36 38 38 39 40 40 42 41 44 44 44 45 43 47 48 45 44 43 48 49 52 51 53 54 55 55 55 56 55 55 57 58 60
32 33 35 35 37 39 41 41 42 44 44 44 45 45 47 46 46 44 43 45 45 47 49 51 52 54 55 56 56 57 57 59 61

GFSFLT1_sfc_dewp_006.txt.gz
Dewpoint
62 62 61 59 60 60 60 60 60 61 62 62 62 60 62 60 57 53 55 58 59 60 61 61 61 62 64 63 62 61 59 58 57
64 64 62 60 59 60 60 60 61 61 60 60 61 61 62 58 58 55 52 55 59 63 62 61 61 61 62 62 61 61 59 58 57
66 65 63 61 61 60 59 62 63 62 62 61 61 61 63 57 58 56 54 57 60 62 62 61 61 61 60 60 60 60 60 58 58
65 64 63 63 62 62 62 62 63 63 63 62 62 63 63 57 54 54 55 59 57 61 61 62 62 62 62 61 61 60 60 60 58
63 64 63 64 64 63 62 62 61 62 63 62 62 63 63 54 54 54 54 59 60 60 60 62 62 62 62 62 61 61 60 60 60
59 63 64 64 64 63 63 63 62 64 64 64 64 63 55 51 50 50 58 59 62 62 60 60 62 62 62 64 62 61 61 60 60
60 62 63 64 64 64 64 64 63 63 57 56 61 57 54 53 52 50 59 58 60 60 61 61 60 61 62 63 63 63 61 61 61
58 59 59 59 61 59 59 59 57 57 57 57 56 56 56 55 54 55 60 58 61 61 59 60 61 60 61 62 63 65 65 64 63
58 58 59 59 58 58 59 58 58 58 58 57 56 56 56 56 55 56 60 59 60 61 61 59 59 61 61 61 62 64 65 65 64
59 59 59 59 59 59 59 59 58 58 58 58 57 57 57 57 56 56 59 60 59 61 62 61 60 59 60 60 62 64 65 66 65
61 60 60 60 60 60 59 59 59 58 58 58 58 58 57 57 57 57 57 61 60 60 62 63 62 62 60 59 62 63 64 65 66
61 61 60 60 60 60 60 59 59 59 58 58 57 57 57 57 57 57 57 57 59 60 60 62 63 62 63 62 62 63 63 63 65
60 60 60 60 60 59 58 58 57 57 56 56 57 57 57 57 56 56 56 56 56 58 60 60 61 63 63 63 63 64 64 63 63
60 59 56 55 55 55 55 55 55 55 54 54 54 54 55 56 56 56 56 56 56 56 57 60 59 60 60 63 64 65 64 64 64
49 46 44 45 46 45 44 45 46 46 47 46 47 50 50 52 53 54 54 56 57 56 57 56 56 58 58 59 61 62 64 64 64
42 41 40 41 41 41 41 41 41 40 41 40 42 41 43 46 44 54 49 49 51 54 55 57 57 56 59 60 59 60 61 62 64
38 39 39 39 39 39 40 41 40 39 39 39 40 36 38 38 41 42 40 41 43 50 55 55 55 56 57 58 59 60 60 61 62
35 36 35 35 36 36 37 36 37 36 36 37 36 36 35 40 39 40 39 40 41 42 45 46 47 49 51 55 56 57 59 60 61
27 29 29 30 30 31 32 29 33 35 33 34 33 36 35 37 37 36 38 36 38 39 41 42 42 43 45 51 54 57 58 59 60
23 23 25 24 25 27 28 28 30 31 29 30 33 34 35 35 36 34 31 33 31 32 35 38 41 42 46 49 52 54 55 56 58

GFSFLT1_sfc_dewp_009.txt.gz
Dewpoint
63 63 62 60 60 60 60 60 60 60 60 61 61 61 62 62 57 56 54 53 58 59 60 61 61 61 61 64 63 62 61 60 59
65 64 63 61 60 59 59 60 61 62 61 61 61 60 63 57 55 56 56 54 57 59 61 62 61 62 61 61 62 62 62 61 59
65 65 63 62 61 61 60 61 62 63 64 63 62 62 63 57 54 56 57 60 56 58 61 61 62 61 62 61 61 61 61 61 60
65 65 63 62 63 63 62 62 62 62 63 63 63 64 64 58 54 53 55 61 59 58 59 61 62 62 63 63 61 61 61 61 61
63 63 64 63 63 63 63 63 62 62 63 63 64 64 64 57 56 54 54 62 59 60 60 60 61 62 63 63 64 62 62 61 61
59 62 64 63 63 63 64 64 63 64 64 64 64 64 58 55 53 51 58 60 59 60 61 61 61 61 62 64 65 65 62 62 62
58 60 63 64 64 65 64 64 65 64 59 58 63 59 57 55 55 54 61 58 58 59 60 61 61 61 61 62 64 64 65 64 64
56 57 58 59 61 61 60 60 60 58 58 57 56 56 56 56 56 57 63 61 59 60 61 61 60 61 62 62 62 64 65 66 66
57 57 58 59 58 58 60 59 58 58 58 57 56 57 57 57 57 57 61 63 61 61 62 63 62 61 60 62 62 64 65 65 66
59 59 59 59 60 59 59 59 58 58 58 57 57 57 57 57 57 58 60 63 63 62 62 63 64 64 63 61 63 64 64 65 65
61 60 60 60 60 59 59 59 59 58 57 57 57 56 56 56 56 57 58 62 63 63 63 63 63 65 65 64 64 63 64 64 65
61 60 60 61 60 59 58 57 56 55 55 53 54 54 54 55 55 56 57 58 61 63 64 63 63 63 65 65 65 65 64 64 64
60 60 59 56 55 54 53 51 50 50 49 49 51 51 51 51 51 53 55 57 56 59 63 64 63 62 62 63 64 65 65 65 64
53 48 46 45 46 44 44 42 42 42 43 43 43 43 46 48 46 48 52 54 56 57 59 60 62 63 62 62 62 63 64 65 64
44 42 41 40 42 42 42 40 42 42 41 37 38 42 42 42 44 47 44 43 43 43 46 52 56 60 62 62 62 62 62 62 64
40 40 39 40 40 39 38 38 38 39 38 38 39 38 40 36 40 38 38 41 42 41 44 48 48 53 59 60 61 61 61 61 62
35 35 35 35 36 35 35 35 35 34 35 34 35 33 33 34 35 36 37 36 41 38 41 42 41 43 45 49 54 59 59 59 58
28 29 28 29 32 33 33 32 33 33 33 33 28 30 28 32 35 33 34 31 31 35 33 35 36 37 38 42 44 52 55 55 57
22 23 25 25 26 27 30 25 30 33 31 31 24 28 28 30 28 29 31 29 25 27 30 29 29 32 38 43 45 52 52 52 53
21 20 22 22 24 25 26 28 28 31 28 27 28 27 30 28 25 23 24 24 24 27 27 29 31 34 37 42 43 48 47 48 49

GFSFLT1_sfc_dewp_012.txt.gz
Dewpoint
63 63 63 62 61 60 59 59 60 60 60 60 59 60 61 63 57 55 57 54 56 59 60 61 61 61 61 62 63 64 62 61 61
65 64 63 62 61 60 58 58 60 62 63 62 62 61 63 60 56 55 55 56 57 58 60 61 62 62 62 61 61 62 62 62 62
66 66 64 62 62 61 61 61 61 62 63 64 64 64 64 60 56 54 55 59 60 58 58 61 61 62 61 62 62 61 62 62 62
65 66 64 63 63 63 64 63 62 61 62 62 64 65 64 61 58 55 54 60 61 60 60 60 61 62 63 62 63 63 62 62 62
65 66 66 64 63 63 63 63 63 63 63 64 65 65 65 61 58 56 54 61 60 60 60 61 61 61 62 63 65 64 64 62 62
61 63 65 64 63 63 64 64 64 65 65 65 65 64 61 58 56 55 59 63 59 59 60 61 62 62 61 62 64 65 65 64 64
58 60 62 64 65 65 64 65 66 65 62 60 62 62 60 58 56 55 62 63 60 59 61 62 61 62 62 62 62 63 65 65 66
57 59 60 60 62 61 62 63 64 62 61 58 57 58 58 56 56 58 63 65 62 61 63 63 62 63 63 62 62 63 65 66 66
57 57 59 59 59 59 59 60 59 59 58 58 57 57 57 57 57 58 62 65 65 63 64 64 64 63 64 64 63 64 65 65 65
60 60 60 60 60 60 59 59 59 58 58 57 57 56 56 56 57 57 60 63 66 66 64 64 64 64 63 65 65 66 65 65 65
61 61 61 60 60 60 59 59 58 57 56 54 54 54 54 54 54 55 56 61 64 66 65 64 64 64 64 63 64 65 66 65 65
60 60 60 59 58 56 54 52 52 51 50 50 51 51 52 52 52 52 53 55 59 63 65 65 63 63 63 63 63 64 65 65 66
55 52 47 49 47 46 44 43 43 43 42 42 41 42 40 41 47 45 47 49 45 50 57 62 62 62 62 62 62 62 64 64 64
46 44 42 42 44 43 42 41 43 41 41 38 37 38 42 38 39 40 35 36 38 41 49 54 56 58 59 58 60 61 62 63 63
42 42 41 41 42 41 38 37 37 38 38 31 36 35 35 37 38 34 30 35 38 37 39 38 45 51 52 51 52 54 56 58 61
37 39 37 37 37 35 33 34 33 34 34 35 31 33 33 32 29 28 34 34 33 31 32 38 31 35 47 48 47 47 48 50 54
29 31 32 30 34 32 31 31 34 33 34 31 30 29 28 28 29 32 31 30 29 27 30 24 24 30 30 34 46 47 49 51 54
26 27 27 27 30 31 29 29 29 33 32 30 27 28 27 25 29 28 30 21 26 26 23 22 25 25 29 36 38 44 49 49 51
23 24 25 25 28 26 27 26 28 30 30 31 26 27 26 24 25 27 23 25 20 22 25 24 28 26 29 38 42 46 41 44 46
22 23 23 23 26 25 24 25 25 29 28 28 28 25 26 23 22 22 21 21 22 25 24 29 27 25 25 22 32 40 39 42 44

GFSFLT1_sfc_dewp_015.txt.gz
Dewpoint
66 64 63 62 62 60 59 59 60 60 61 61 60 60 60 63 57 56 56 56 58 57 61 61 62 61 61 62 63 64 64 63 62
66 65 64 63 62 61 59 58 60 61 63 64 63 63 64 60 58 56 55 55 61 60 59 61 62 62 62 62 62 62 63 63 62
66 65 64 63 62 61 62 61 62 61 62 63 64 65 65 61 59 57 55 57 61 62 60 60 60 62 62 63 62 63 62 62 62
65 67 65 63 62 63 64 64 63 63 62 62 64 65 65 63 60 58 56 59 61 61 62 61 61 61 61 63 63 63 63 63 62
67 67 67 64 64 64 63 63 63 64 64 64 65 66 66 63 61 59 57 61 62 61 61 61 61 62 61 61 62 63 63 63 64
62 64 64 66 64 63 63 64 65 66 66 66 66 65 62 61 60 58 60 62 63 62 63 63 61 62 63 63 62 62 63 64 64
60 61 64 64 65 65 65 65 67 66 64 62 63 61 61 60 59 58 61 63 62 63 65 64 64 62 63 63 63 63 63 63 65
57 57 59 58 61 61 61 61 63 63 62 61 60 58 60 59 59 59 63 64 64 64 66 65 65 65 64 64 64 65 64 64 65
57 57 58 59 59 59 60 60 59 59 59 59 58 57 57 58 58 59 62 64 63 63 65 65 65 65 65 64 65 66 65 65 66
60 60 60 60 60 60 59 59 58 57 56 54 52 53 53 53 53 54 58 61 62 62 61 63 65 65 64 64 65 65 65 64 66
60 60 59 58 57 51 50 48 48 46 46 42 45 48 47 46 47 50 53 58 59 56 55 59 61 62 62 63 63 64 65 65 65
58 48 46 48 46 43 42 42 43 42 41 41 42 40 39 40 42 44 45 46 49 53 52 52 53 55 57 59 60 62 62 63 63
44 42 42 44 43 42 41 41 40 40 40 39 36 36 39 39 36 39 32 34 37 45 48 47 51 51 51 53 54 54 55 59 57
42 41 40 41 41 39 37 37 36 36 36 31 34 31 34 35 35 32 27 33 38 35 43 46 45 43 44 47 48 49 48 48 50
39 37 35 37 37 34 33 31 32 34 33 32 30 29 33 34 30 24 28 36 30 33 28 37 29 41 40 43 44 45 46 46 49
31 33 31 33 33 30 29 31 31 32 33 33 25 32 32 28 21 24 29 29 30 23 30 23 21 23 37 39 42 44 43 47 48
26 28 28 28 31 28 28 28 30 32 32 29 30 27 26 24 23 26 21 27 22 27 19 21 22 26 30 33 36 39 43 48 48
25 25 25 27 29 28 26 27 27 30 31 29 25 25 25 22 27 19 26 17 23 21 25 24 23 27 27 29 32 36 38 42 45
23 24 24 25 27 24 25 25 26 27 27 29 27 26 25 24 21 25 19 24 20 22 23 23 27 24 26 28 30 34 36 40 43
22 22 22 22 25 22 22 22 22 25 25 26 27 23 25 23 22 18 20 21 21 22 22 27 23 23 21 23 27 32 36 40 42

GFSFLT1_sfc_dewp_018.txt.gz
Dewpoint
63 64 64 63 61 60 59 59 59 61 62 62 62 62 62 63 59 56 56 56 59 61 59 62 62 62 62 62 63 64 65 65 64
66 66 64 63 62 61 59 59 60 61 62 63 63 64 65 62 59 57 56 55 61 61 62 60 62 62 62 62 62 62 63 63 63
66 65 64 63 62 61 62 62 62 62 62 62 63 65 66 63 60 59 57 59 60 61 62 62 60 60 61 62 62 63 62 63 62
66 66 65 64 63 63 63 64 63 63 63 63 63 66 66 63 61 60 59 60 62 61 61 62 62 62 62 61 62 62 63 62 63
67 68 67 65 64 64 64 63 63 64 64 65 66 66 65 63 62 61 60 63 64 63 62 62 62 62 62 63 63 62 62 62 63
62 65 65 66 65 64 64 64 65 66 66 66 66 65 63 61 61 60 61 63 65 64 64 65 64 62 64 65 64 64 63 63 62
59 61 64 66 66 66 65 66 67 66 64 63 64 61 61 61 60 59 62 64 65 65 66 66 66 65 65 65 63 64 65 65 64
59 59 59 60 60 59 61 60 60 62 62 62 61 59 58 59 59 59 63 62 61 60 61 65 65 65 65 64 64 65 65 65 65
56 57 57 59 59 59 60 60 55 52 53 52 51 52 53 54 55 56 58 58 58 58 59 61 63 65 64 64 64 65 65 65 65
60 60 60 59 57 52 46 46 45 44 43 42 43 44 42 42 44 47 55 53 50 53 54 56 57 58 59 60 61 62 63 63 63
59 52 49 45 44 43 42 42 41 40 40 39 39 37 37 39 38 43 43 48 49 47 51 52 53 57 56 57 56 56 57 57 58
44 44 44 43 42 40 39 38 38 38 36 34 34 34 34 36 36 36 31 36 46 46 47 46 50 48 50 51 52 52 52 52 52
41 41 41 41 38 37 36 35 34 34 34 32 32 30 32 34 33 30 27 33 38 39 41 44 42 42 43 46 48 48 48 48 48
37 37 38 37 35 34 33 31 33 32 31 31 33 26 30 35 26 22 25 34 32 32 35 36 34 37 40 43 44 45 46 46 45
34 32 34 34 32 31 29 28 30 31 31 31 28 26 31 29 21 23 27 30 29 27 29 25 25 36 39 39 43 44 43 43 44
30 30 30 32 29 28 26 29 29 30 32 29 28 30 30 21 16 24 22 26 20 24 22 23 23 26 35 38 40 41 41 42 42
26 27 28 28 27 25 25 26 27 30 31 27 29 25 26 23 17 24 20 20 18 25 20 23 23 24 29 32 35 36 38 40 43
25 25 25 26 26 25 25 25 25 26 28 27 23 21 22 21 25 19 22 17 22 22 23 24 23 24 26 29 30 33 36 38 41
23 23 23 23 25 22 23 23 24 24 23 27 25 25 24 20 20 23 19 21 17 21 23 23 24 24 25 29 31 32 33 37 41
21 21 21 21 23 21 20 21 19 23 23 24 25 23 24 23 24 18 17 16 19 20 20 24 21 22 25 26 27 31 35 39 41

GFSFLT1_sfc_dewp_021.txt.gz
Dewpoint
63 64 63 62 61 60 59 59 59 60 61 62 63 62 62 63 58 57 56 57 59 60 61 61 62 62 63 62 62 63 65 66 65
64 65 64 63 61 61 59 59 60 61 61 62 62 62 66 63 60 59 57 56 61 61 62 62 60 63 63 62 62 62 61 62 63
66 65 64 63 62 62 62 62 63 63 63 62 62 65 65 63 61 60 59 60 63 62 61 62 63 61 61 61 61 61 62 63 63
66 66 65 64 63 63 63 64 63 63 63 64 64 66 65 63 62 61 60 62 64 64 62 62 63 63 63 63 62 62 62 62 63
66 68 67 66 64 64 64 64 63 64 65 65 67 66 66 63 61 61 61 64 65 65 65 64 64 63 64 65 64 64 64 63 62
61 66 66 67 66 65 65 65 65 66 66 66 66 65 62 62 61 60 62 64 65 65 66 66 65 65 66 65 66 64 64 64 65
59 61 64 65 66 66 64 65 65 63 62 62 63 61 60 60 60 60 61 61 61 61 61 62 63 64 64 65 65 65 65 65 65
58 58 58 59 59 58 60 60 59 55 55 53 50 51 51 51 54 53 58 57 57 57 58 60 62 63 64 64 64 64 65 65 65
56 57 57 59 60 58 53 48 45 43 42 43 42 42 42 43 45 49 53 52 54 55 56 57 58 59 60 60 62 61 61 62 63
59 59 53 48 46 45 44 42 40 39 39 38 36 36 36 37 40 40 48 50 48 51 54 52 56 55 55 56 56 56 56 57 57
50 46 44 43 42 41 40 38 37 35 34 31 32 31 31 35 35 30 33 46 46 46 48 51 49 50 49 50 51 52 52 52 51
44 44 42 40 39 36 33 32 33 31 30 29 31 29 30 35 26 26 29 38 41 41 46 44 44 44 45 47 48 48 49 49 50
41 40 39 35 34 33 31 33 31 29 30 29 30 27 28 34 21 22 28 34 32 34 38 37 38 40 43 44 45 46 46 46 46
37 37 35 32 31 30 29 29 32 28 28 27 30 26 27 30 19 21 25 29 27 27 31 33 34 36 39 41 44 45 45 44 44
32 33 31 30 29 28 26 26 28 31 29 28 26 26 30 24 19 22 21 26 21 24 24 24 26 33 36 38 41 43 42 41 42
28 30 29 28 27 25 24 26 27 28 30 27 26 28 28 22 18 25 20 22 18 24 24 21 25 26 33 36 36 39 40 40 41
25 28 27 26 25 24 24 24 25 27 29 26 27 22 22 23 16 22 22 19 21 25 18 22 23 25 26 31 33 35 38 40 41
25 25 25 25 25 24 23 24 22 23 24 26 18 15 18 22 22 16 22 16 21 20 20 24 22 23 27 27 30 33 34 38 41
24 23 22 23 23 21 21 22 22 22 22 25 22 23 23 19 18 21 16 20 15 18 23 23 22 25 25 28 32 32 33 37 40
21 20 20 21 23 20 19 19 18 22 21 22 23 22 22 22 22 14 18 16 14 15 18 21 23 21 22 27 28 31 34 37 40

GFSFLT1_sfc_dewp_024.txt.gz
Dewpoint
63 62 63 62 61 60 59 59 59 59 61 62 62 62 62 64 59 58 58 58 59 59 61 61 62 62 62 63 62 62 63 65 65
64 65 64 63 61 60 59 59 60 61 61 62 62 63 66 63 60 59 59 58 63 62 60 62 62 61 63 65 60 61 62 62 61
66 65 64 63 62 61 61 62 63 63 63 63 63 64 65 63 61 60 60 61 64 64 62 62 62 63 62 61 62 62 62 62 63
66 66 65 64 63 63 63 64 64 63 64 64 65 66 66 63 62 61 61 63 65 65 65 64 63 64 64 65 64 63 63 63 62
65 68 67 65 64 64 64 65 64 65 65 66 67 66 65 61 61 61 60 64 65 66 66 66 65 65 65 66 66 65 65 64 64
61 65 67 67 66 65 65 65 66 65 64 64 64 63 60 60 60 59 60 61 63 63 63 62 63 64 65 66 65 65 65 65 65
59 61 63 64 64 63 62 63 62 60 59 55 54 52 50 52 53 54 58 58 58 59 59 60 62 63 64 64 64 65 65 65 65
58 58 57 58 59 58 60 51 46 43 44 44 43 42 43 42 46 49 53 54 56 56 57 58 59 61 61 62 62 61 62 62 63
56 57 58 59 58 46 46 43 39 39 38 37 35 35 37 37 41 40 52 50 52 54 54 55 57 56 56 57 57 57 57 57 57
59 55 47 45 44 43 40 38 35 33 31 31 32 25 31 37 33 31 49 47 48 49 52 53 52 51 50 51 53 53 53 53 53
48 44 43 41 40 37 35 34 31 29 28 27 31 24 34 30 23 27 35 43 43 47 47 48 47 47 48 49 49 49 50 50 51
45 42 39 37 35 30 30 31 28 26 26 24 29 25 30 25 20 25 29 35 38 42 43 43 43 44 45 47 46 47 48 48 48
41 38 35 32 31 29 28 31 28 25 26 23 27 25 28 26 17 24 27 31 26 33 37 38 38 39 41 43 44 46 46 46 45
36 34 31 29 28 27 27 27 30 26 25 22 26 24 26 24 17 23 22 24 22 26 30 32 33 35 38 40 43 44 43 44 44
32 30 28 27 27 25 23 24 26 30 28 24 22 27 31 22 19 24 19 22 19 25 23 23 26 33 34 37 40 40 41 42 43
29 29 26 26 25 23 22 23 23 26 28 23 24 26 26 26 22 22 19 21 19 23 23 17 23 25 32 34 35 38 40 41 42
26 26 25 23 24 22 22 21 22 23 27 21 25 19 18 20 16 21 20 18 21 23 16 17 21 24 25 31 33 34 38 40 41
25 24 24 23 24 24 23 21 20 20 22 26 16 12 13 22 21 18 23 16 20 19 19 20 22 23 24 29 29 33 35 38 41
23 23 22 22 23 20 21 20 21 20 20 22 21 21 22 17 16 19 16 19 15 17 18 18 21 22 25 28 30 32 33 37 40
21 20 20 21 23 19 18 18 17 21 19 20 21 20 21 20 21 14 17 15 15 16 16 20 19 19 22 25 29 31 34 37 39

GFSFLT1_sfc_dewp_027.txt.gz
Dewpoint
62 62 62 61 61 60 60 60 59 60 61 62 62 62 62 63 62 62 61 61 61 62 60 61 62 64 63 63 63 62 62 63 65
64 64 63 62 61 60 60 61 62 62 63 62 62 63 65 62 62 62 62 61 64 64 63 61 62 62 62 63 65 61 61 62 62
65 66 64 63 62 61 61 63 63 63 63 63 64 65 66 62 61 62 62 63 64 65 64 64 63 63 64 63 62 62 62 62 63
67 66 65 64 63 63 63 64 64 64 65 65 66 66 66 63 62 62 62 62 65 66 65 66 65 65 64 65 65 65 64 64 64
66 67 67 64 64 64 65 65 66 66 65 65 64 64 63 61 61 60 59 63 64 65 65 64 63 65 66 66 66 65 65 65 65
61 65 67 65 65 65 64 64 64 63 61 59 57 57 54 54 53 54 60 59 60 61 61 61 62 63 64 65 65 65 65 65 65
59 61 62 62 63 62 63 59 52 50 47 46 47 44 43 44 48 50 55 56 57 58 59 59 60 62 63 63 63 63 64 64 64
58 59 59 60 60 60 49 45 43 43 43 41 38 38 38 42 39 50 54 53 53 55 55 58 58 58 58 58 59 59 59 59 58
58 58 60 54 47 45 45 41 37 35 33 34 29 27 35 34 34 48 50 52 54 52 55 55 54 53 52 53 55 55 55 55 54
60 51 46 45 44 41 38 35 30 28 27 30 27 28 36 28 31 38 48 46 48 52 52 50 50 50 51 52 51 51 52 52 52
49 46 43 41 37 35 33 28 26 25 23 27 28 26 32 21 29 29 37 44 46 46 46 47 46 47 48 49 48 48 49 50 50
46 42 39 36 32 29 31 28 25 24 21 21 28 24 33 21 24 28 30 28 38 41 42 42 42 42 44 45 46 46 46 47 47
42 38 35 31 30 29 28 29 27 23 23 21 25 24 30 21 23 24 28 26 25 32 37 36 37 38 41 43 44 44 45 45 46
37 33 30 27 27 27 24 26 28 23 23 21 23 25 28 23 21 21 26 25 25 26 28 31 31 33 36 40 42 43 43 43 44
32 30 27 26 26 24 24 22 26 25 25 20 18 29 33 25 24 23 18 24 23 25 25 21 20 30 34 36 39 40 41 41 43
29 28 26 26 24 23 21 24 22 24 24 21 22 24 25 28 27 20 21 23 22 23 21 17 17 18 30 32 34 37 40 40 42
26 26 25 25 24 23 22 22 23 23 25 19 22 18 16 20 16 21 21 20 20 19 17 16 17 19 20 26 33 34 37 40 42
25 25 24 25 26 24 24 24 23 20 23 23 13 15 13 18 20 18 20 17 17 17 18 17 16 18 19 25 27 31 34 38 41
24 24 24 24 24 24 22 21 23 22 20 22 18 19 18 14 12 18 17 18 14 17 17 16 16 18 20 25 29 31 34 38 41
23 23 23 22 22 21 20 20 21 21 18 20 20 19 19 18 17 11 14 15 16 17 16 17 16 17 20 22 25 31 34 38 40

GFSFLT1_sfc_dewp_030.txt.gz
Dewpoint
62 63 63 61 61 60 61 60 61 61 62 62 62 63 64 64 59 60 60 60 63 63 62 61 62 62 64 64 63 63 63 63 64
64 64 64 62 61 61 61 62 62 63 63 63 63 62 64 60 60 60 61 61 63 64 64 63 62 63 63 62 63 64 62 62 62
65 65 64 63 62 62 62 63 64 63 63 64 64 65 66 61 60 61 61 63 65 66 65 65 65 64 64 65 64 63 63 63 63
67 66 65 64 63 63 63 64 65 65 65 65 66 65 65 61 60 60 60 64 66 66 66 66 66 66 66 65 65 66 66 65 65
68 67 66 64 64 65 65 65 65 65 65 63 62 61 62 58 59 58 57 61 62 63 62 63 63 64 64 65 65 65 66 66 65
61 66 66 65 64 65 63 64 63 60 57 55 52 55 53 53 52 54 57 59 60 59 61 60 61 63 64 64 64 65 65 65 65
58 62 63 61 62 62 59 54 50 52 50 48 51 47 46 47 48 50 57 57 56 58 57 61 60 60 60 60 60 61 61 61 60
57 58 58 60 60 59 51 47 47 47 45 45 41 39 40 42 41 49 52 54 57 55 59 58 56 55 55 56 57 57 57 57 57
57 57 60 58 54 48 45 45 42 39 35 35 30 29 33 32 35 45 50 50 51 54 55 53 53 53 53 54 53 53 54 54 54
58 57 53 49 45 43 44 40 35 31 27 28 26 25 31 28 32 37 47 48 50 50 50 50 49 49 50 51 50 50 51 52 52
56 48 45 41 40 38 37 32 28 26 23 24 25 22 29 26 31 31 37 46 45 46 46 45 44 45 46 47 47 47 48 49 50
50 45 42 37 33 32 32 28 26 26 22 21 24 23 26 26 25 29 28 30 40 41 41 40 40 41 43 44 45 45 46 47 47
45 42 38 33 31 30 29 29 28 25 24 23 24 24 23 25 24 27 26 26 24 31 35 35 36 37 39 41 43 44 44 44 45
41 37 34 30 29 29 25 27 26 24 24 21 21 24 26 27 21 22 26 26 26 25 25 27 27 31 36 39 41 42 43 43 44
38 33 29 28 29 26 25 24 25 24 23 19 19 29 31 27 26 24 18 24 25 24 26 25 21 27 30 35 37 40 41 42 43
33 30 28 28 27 25 22 23 24 25 23 23 23 25 24 25 27 26 20 23 21 22 20 18 17 18 28 30 33 38 39 40 41
32 30 28 27 27 25 24 25 25 24 23 20 24 21 18 20 22 21 20 16 19 18 17 18 19 19 19 25 32 33 37 40 42
28 30 27 28 28 27 26 25 23 23 24 21 14 17 18 16 18 19 16 17 16 17 19 19 18 18 19 23 25 30 34 38 41
27 27 26 27 26 26 24 21 23 22 22 23 16 17 15 15 14 17 16 16 14 18 18 18 17 18 19 24 27 29 33 38 41
25 25 25 24 24 23 22 23 21 21 18 21 20 18 19 16 16 14 14 15 16 17 17 18 17 17 19 21 24 29 34 38 40

GFSFLT1_sfc_dewp_033.txt.gz
Dewpoint
63 64 62 62 61 61 62 62 62 63 62 62 62 63 64 65 60 59 60 60 63 64 63 62 61 62 63 65 64 63 63 63 63
64 64 63 62 62 62 63 63 63 63 63 63 63 63 64 61 59 59 60 62 64 65 65 64 64 63 63 63 63 63 64 64 62
65 65 64 63 62 62 63 64 64 64 64 64 65 65 66 61 61 60 61 64 65 66 66 66 66 66 65 65 65 65 64 64 64
67 66 65 64 63 63 64 65 66 65 66 65 64 64 65 61 58 58 58 64 63 65 64 64 64 65 65 66 66 66 66 66 66
68 68 66 65 65 65 65 65 65 65 63 61 60 61 63 58 56 56 56 61 62 62 63 62 62 65 65 65 65 65 66 66 66
64 66 67 66 65 64 64 62 62 60 58 53 53 56 51 51 52 53 59 59 59 61 59 63 63 62 62 62 62 63 63 62 62
59 63 65 64 63 63 58 53 52 55 51 50 53 48 48 47 48 51 55 55 55 58 59 60 58 57 57 58 59 59 59 59 59
57 59 59 60 61 59 54 51 49 48 47 47 44 39 39 39 40 50 53 54 54 56 58 56 55 55 55 56 56 55 56 56 56
55 56 58 60 57 53 50 48 45 43 39 36 32 30 35 33 35 47 49 50 53 56 53 53 52 52 53 53 53 52 53 54 54
56 57 56 53 51 49 48 45 41 36 30 29 28 25 29 28 31 41 52 50 50 50 50 49 48 48 48 48 49 49 49 50 50
58 55 52 48 46 44 43 38 33 29 26 25 25 24 26 25 29 31 42 46 46 46 45 44 43 43 44 45 46 46 46 48 49
57 52 48 44 41 38 37 31 29 29 26 25 24 25 23 27 25 30 34 38 42 41 39 38 39 40 42 43 44 45 45 46 47
54 49 44 40 38 37 32 31 31 30 29 26 27 26 26 26 24 28 29 31 26 37 33 32 35 35 38 42 43 43 44 44 45
50 45 43 38 36 33 30 30 28 29 31 27 26 29 30 31 23 25 27 28 29 29 32 27 32 29 33 38 41 42 43 43 44
47 42 39 35 34 31 30 29 29 28 28 22 24 32 32 33 31 26 23 24 27 28 31 31 28 30 30 34 36 39 42 42 42
41 37 35 34 33 31 28 28 29 29 28 31 33 32 28 26 28 30 26 26 27 25 26 24 24 23 29 30 31 37 38 40 42
35 34 35 34 32 30 29 30 30 29 28 24 31 29 26 24 27 26 21 21 24 23 22 21 23 25 24 29 31 31 35 40 41
35 35 33 34 34 34 33 32 29 29 28 24 18 25 25 21 26 25 23 20 23 22 23 22 22 22 23 26 27 29 33 37 42
34 37 33 33 32 31 31 27 28 27 27 27 18 20 18 19 18 24 23 21 16 20 22 21 21 21 23 26 28 30 31 36 41
31 34 34 31 31 28 26 27 25 24 20 23 23 20 22 19 20 19 20 19 19 20 20 20 20 20 22 25 26 28 32 37 40

GFSFLT1_sfc_dewp_036.txt.gz
Dewpoint
64 62 62 62 62 62 63 63 63 64 64 63 62 62 63 66 60 59 61 61 64 65 64 63 62 61 62 63 65 64 63 64 62
65 64 63 63 63 63 64 65 65 64 64 64 64 64 66 63 61 59 63 64 65 65 65 64 65 65 64 63 64 65 63 63 64
66 65 63 63 64 64 65 65 65 65 65 65 65 66 66 62 60 60 60 65 65 66 65 65 65 65 66 66 66 65 65 65 64
67 66 65 64 64 65 65 66 66 66 65 64 63 65 65 63 59 56 59 65 63 64 64 63 65 66 66 66 66 66 67 67 67
68 67 66 65 65 66 65 65 65 65 63 59 59 61 62 59 55 56 59 61 61 62 62 64 64 63 63 63 64 64 63 63 63
66 66 67 67 66 64 64 63 63 62 60 57 57 57 50 49 54 54 58 58 58 59 63 62 60 59 59 60 60 60 60 60 61
64 65 66 66 65 64 60 57 58 60 53 51 54 44 42 46 50 54 57 58 59 59 59 58 57 57 58 57 57 57 57 58 58
62 62 61 61 62 58 56 52 50 46 45 43 38 35 36 38 49 51 52 52 52 59 56 55 55 54 55 55 54 54 54 55 55
56 59 59 60 59 53 50 49 44 41 35 32 30 28 33 33 46 49 54 53 55 55 53 52 51 51 51 51 51 51 50 52 52
56 57 56 53 52 51 50 44 40 31 28 28 27 24 26 25 37 48 54 51 51 51 49 48 47 46 46 46 47 47 48 48 49
57 55 53 51 49 46 41 36 31 29 27 26 24 24 24 24 30 43 47 48 47 46 44 43 42 43 44 45 45 45 47 47 48
55 52 48 46 44 40 35 30 30 31 28 27 25 25 23 26 25 31 37 41 45 40 37 37 38 39 41 43 45 45 45 46 47
53 50 46 41 39 39 34 33 32 30 29 27 26 26 26 24 23 27 28 32 34 37 35 31 34 35 36 40 43 44 45 45 46
51 46 45 40 38 35 32 31 30 29 29 26 23 28 29 29 23 24 26 27 27 28 33 30 34 33 34 36 40 41 43 44 45
47 46 41 37 36 32 32 29 29 28 27 25 26 29 28 30 26 25 23 25 25 25 25 27 27 32 33 36 37 38 41 42 43
44 40 37 36 34 32 29 30 30 29 28 29 29 29 25 27 28 28 27 25 24 25 25 23 23 24 30 31 33 36 37 40 43
38 37 35 34 33 30 28 30 30 29 27 23 27 26 26 25 23 29 19 19 21 21 19 19 20 22 24 27 31 32 35 39 41
40 38 36 34 35 34 32 30 29 29 27 23 20 21 23 20 24 23 22 18 21 20 20 21 21 21 21 27 27 29 33 37 41
41 41 41 36 35 32 30 30 27 27 27 27 20 19 18 19 19 23 21 21 15 18 21 20 20 20 22 27 29 29 32 35 40
36 36 35 34 36 28 27 26 25 24 24 24 24 19 22 20 20 19 20 20 20 20 21 21 20 20 20 23 26 28 32 36 39

GFSFLT1_sfc_dewp_039.txt.gz
Dewpoint
62 63 63 63 63 63 63 64 64 64 64 63 62 62 63 65 61 60 63 62 64 65 64 63 63 61 61 62 63 64 63 64 63
63 63 63 63 64 65 65 65 65 65 65 65 64 64 66 63 61 63 64 64 65 65 64 66 66 66 66 64 63 64 65 63 63
65 63 64 64 64 65 66 66 65 65 65 65 65 66 66 63 60 59 61 66 65 65 65 65 66 66 66 67 67 67 67 66 66
66 65 64 65 65 66 66 66 66 66 65 63 62 64 63 61 56 57 60 65 64 64 62 66 65 64 65 65 65 64 64 64 65
68 67 66 65 66 66 66 65 65 65 63 59 60 59 58 55 55 57 60 62 63 62 64 63 61 61 62 62 61 61 62 62 63
66 65 66 67 66 65 65 65 64 63 61 59 57 55 47 53 53 55 61 57 59 62 61 59 59 60 60 59 59 59 59 60 60
64 65 66 67 66 66 63 61 62 60 53 50 50 37 39 50 52 54 59 59 58 60 59 57 57 58 57 56 56 56 56 57 57
64 64 64 63 63 60 58 53 50 46 44 37 32 33 37 48 49 52 54 52 56 58 56 55 54 54 54 53 53 53 53 53 54
62 61 60 60 60 56 52 49 44 37 31 30 27 26 33 44 45 54 58 56 57 55 53 52 51 50 49 49 49 49 49 49 50
58 59 59 59 57 51 49 43 36 28 26 26 25 23 26 38 45 51 55 53 53 51 49 47 45 45 46 46 46 46 47 48 48
56 56 54 51 50 48 44 35 30 28 26 26 24 23 26 29 43 46 49 51 49 46 44 42 42 42 43 44 46 46 46 47 48
56 53 50 47 46 36 30 30 30 30 28 26 26 24 23 25 34 40 40 44 48 39 37 37 38 39 39 42 44 45 46 46 47
53 50 47 41 40 37 34 33 30 30 29 26 25 26 26 24 26 33 35 36 36 38 35 32 35 36 37 40 42 43 44 45 46
51 47 43 40 37 34 31 30 30 27 27 25 23 28 29 29 25 26 27 28 29 31 34 31 35 32 36 38 41 41 41 43 44
48 45 41 39 35 32 31 28 29 28 26 24 27 29 30 29 24 25 24 27 25 25 25 27 25 30 31 34 36 38 40 40 42
47 44 39 36 32 31 29 30 28 27 27 27 26 30 26 27 27 28 26 25 24 24 25 23 23 23 28 29 32 36 38 39 41
45 40 36 35 33 30 29 30 31 28 26 23 28 24 24 25 23 29 22 19 22 22 19 18 19 21 23 27 31 30 33 37 40
44 37 36 34 33 32 30 31 30 30 27 21 21 22 22 20 23 24 22 18 21 20 21 21 20 20 21 26 27 30 31 36 39
44 39 38 39 38 33 32 29 29 30 27 26 22 19 18 17 14 21 21 20 18 19 20 21 21 20 22 27 32 31 30 34 39
42 40 41 37 37 37 31 27 25 27 26 27 24 20 22 20 20 18 19 19 19 19 21 21 20 20 21 24 27 32 31 35 38

GFSFLT1_sfc_dewp_042.txt.gz
Dewpoint
62 62 63 63 63 63 63 63 63 63 63 63 62 62 64 64 61 60 61 62 64 64 61 64 64 63 62 61 63 64 62 62 64
63 63 63 63 63 64 64 65 65 65 65 64 64 65 66 62 61 62 63 65 66 65 66 66 66 67 67 65 62 64 65 64 62
63 63 64 64 65 65 66 65 65 65 65 65 65 64 65 60 58 60 61 66 65 65 65 66 66 67 67 67 66 65 66 67 67
64 64 64 65 65 66 66 66 66 66 64 63 62 62 63 57 57 58 61 66 64 62 66 64 63 64 63 63 62 62 63 64 65
67 66 66 65 66 66 66 66 66 65 62 59 60 60 59 55 56 58 61 64 62 65 63 61 61 61 60 61 61 60 60 61 62
66 65 66 67 67 66 65 65 64 63 59 58 56 54 53 52 54 57 61 59 61 62 60 59 59 59 59 58 57 57 58 58 59
65 64 66 67 67 66 64 64 62 58 52 46 45 39 50 51 52 55 61 57 62 59 58 57 57 57 56 55 55 54 55 56 56
64 64 65 64 63 61 60 55 51 46 43 33 31 36 47 48 48 54 57 53 60 56 55 54 53 53 52 52 51 51 51 52 52
62 63 62 61 61 57 53 50 44 34 31 29 25 32 42 44 47 56 59 59 57 55 53 51 49 48 47 47 47 48 49 49 49
62 61 60 60 59 54 50 44 34 27 26 26 24 25 36 41 49 52 56 56 54 51 49 47 46 45 45 46 47 47 47 48 49
60 59 59 58 57 51 46 34 30 27 26 25 24 24 28 42 47 47 51 54 50 47 44 42 41 41 42 44 45 46 47 48 48
57 57 55 53 50 44 33 29 30 29 27 25 24 23 25 37 42 43 43 48 49 40 39 37 38 38 39 42 43 44 46 46 47
56 54 52 48 41 34 32 32 31 29 28 25 24 26 25 25 37 36 38 39 37 40 36 34 34 35 38 40 43 43 42 44 45
54 52 48 42 39 35 32 31 29 27 26 25 24 28 28 27 28 31 33 32 33 33 35 35 32 31 33 36 39 40 40 42 42
52 49 43 40 36 33 30 28 29 27 26 24 27 29 30 26 25 26 26 28 26 26 25 27 25 28 29 30 33 37 39 39 40
50 47 41 37 34 32 28 29 26 26 27 27 27 31 26 27 27 27 25 26 25 25 25 23 22 23 28 27 30 34 35 37 39
52 45 40 35 33 30 30 31 30 28 25 25 28 24 24 25 23 28 25 22 24 23 20 19 19 21 23 26 32 31 32 35 38
53 44 42 34 34 32 30 31 30 29 25 22 25 25 24 20 22 24 21 19 22 20 21 19 20 21 21 27 29 33 30 34 38
50 44 40 43 37 31 32 32 33 29 26 25 22 20 19 17 14 21 22 19 17 18 20 21 20 20 23 27 31 34 33 35 38
49 44 42 42 39 39 36 36 34 30 28 28 24 20 22 20 19 15 19 20 19 19 21 21 21 21 22 25 30 33 34 37 39

GFSFLT1_sfc_dewp_045.txt.gz
Dewpoint
62 63 65 65 64 64 64 64 63 62 63 63 62 64 65 63 61 59 59 62 64 63 62 64 64 66 63 61 64 64 63 62 64
62 63 63 63 63 63 63 64 64 64 64 64 65 65 64 61 60 62 63 64 67 66 66 67 67 67 67 65 65 66 66 65 63
63 63 63 64 64 64 65 65 65 65 65 65 64 63 63 59 59 61 62 66 65 64 66 65 65 65 65 65 65 65 66 67 67
64 64 64 65 65 65 66 65 65 65 64 62 60 62 61 57 58 60 61 65 63 66 64 63 62 63 61 61 61 62 63 63 64
66 66 66 65 66 66 66 66 66 64 60 58 61 62 59 56 57 58 63 63 65 64 62 61 61 59 59 60 59 59 59 59 60
65 65 66 67 67 66 66 65 65 61 59 58 59 56 52 53 56 58 62 61 63 61 60 59 58 58 57 57 57 57 58 58 58
65 64 66 67 67 67 65 65 62 55 49 43 45 49 51 51 53 55 61 59 61 59 57 57 57 56 55 54 54 54 54 54 54
64 63 64 64 64 63 61 56 51 47 37 32 35 46 48 48 48 53 58 60 58 56 55 54 53 52 51 50 49 50 50 50 50
62 62 62 62 61 58 54 50 43 35 30 26 30 40 44 44 51 56 60 61 57 55 52 50 49 48 48 48 48 48 49 50 50
61 61 61 60 59 57 51 45 33 28 27 25 24 31 41 45 49 52 57 59 55 52 49 48 46 45 45 46 48 48 48 49 49
62 60 60 59 59 54 49 40 30 27 25 24 23 26 39 45 47 49 53 56 51 48 45 42 42 41 42 44 45 45 47 48 48
61 60 59 58 57 51 38 30 29 28 26 25 24 25 32 41 44 45 46 49 50 43 40 39 39 39 40 43 44 44 44 45 46
59 59 57 55 52 42 33 31 30 29 27 25 24 25 25 34 40 39 42 40 38 40 37 34 34 36 37 39 40 42 41 42 43
57 56 55 50 42 35 33 31 30 28 26 24 24 27 28 26 35 34 35 34 35 33 35 35 32 31 32 35 37 38 40 40 41
55 54 50 45 38 34 32 29 29 28 26 25 27 29 30 27 28 30 29 30 28 27 28 28 25 32 30 29 33 36 38 38 40
55 52 46 43 37 33 30 29 26 26 26 28 28 30 27 27 26 27 26 27 26 25 25 23 22 23 33 33 31 34 36 37 38
55 51 46 41 36 31 29 30 29 27 27 27 28 25 24 25 23 28 26 24 26 24 20 19 20 21 23 28 35 36 36 36 38
56 51 47 40 38 36 30 31 30 28 25 23 28 26 26 23 22 24 21 19 23 21 20 20 20 20 22 26 29 35 36 37 39
56 53 46 45 44 39 42 39 38 31 27 26 21 20 23 22 16 20 21 19 18 18 20 21 20 21 24 29 34 34 35 37 40
55 51 50 47 46 46 43 42 39 35 33 30 26 21 23 20 18 15 18 20 20 20 20 20 21 21 23 24 29 33 35 38 40

GFSFLT1_sfc_dewp_048.txt.gz
Dewpoint
63 65 66 66 65 66 65 64 63 63 64 64 64 65 64 63 60 57 59 62 65 65 66 64 67 66 63 63 64 64 64 62 63
63 65 65 64 64 64 64 63 63 64 64 65 66 64 63 60 60 62 63 64 66 67 67 67 67 67 67 67 67 67 67 67 65
63 64 64 64 64 64 64 65 65 66 66 65 64 63 63 60 60 61 63 66 64 66 66 65 64 64 64 64 64 64 65 66 67
63 64 64 64 64 65 65 66 66 65 63 62 61 63 61 58 59 60 62 65 65 64 63 62 62 61 60 60 60 60 61 62 63
66 66 66 65 66 66 66 66 66 62 59 61 63 62 60 57 57 60 62 65 64 62 61 61 59 60 59 59 59 59 59 59 59
64 65 66 67 67 67 66 66 64 60 61 62 59 56 53 55 57 58 64 63 62 60 60 59 58 58 57 56 56 57 57 57 57
64 63 65 67 67 67 66 66 60 54 45 44 53 51 51 52 53 54 61 62 60 59 58 58 57 56 54 53 53 53 53 53 53
63 62 63 64 64 63 62 56 51 50 36 35 44 48 48 47 48 54 58 61 58 57 55 54 53 52 51 50 51 51 51 51 51
62 62 62 62 62 59 56 50 42 34 28 29 38 45 44 44 52 55 62 60 57 55 52 51 50 49 49 49 49 49 50 50 50
62 61 61 61 60 57 52 46 33 29 27 25 31 40 41 48 50 52 59 60 55 52 50 49 46 45 46 48 48 48 49 50 50
62 61 60 60 59 56 50 41 29 27 25 24 25 34 40 46 47 50 54 57 53 49 47 44 43 43 43 45 45 46 47 48 48
62 61 60 59 58 53 44 32 28 28 26 24 24 27 39 44 45 47 49 49 52 46 42 42 40 39 42 42 43 44 43 44 45
61 61 60 58 57 50 38 32 30 28 27 25 25 25 31 40 41 42 44 39 38 42 40 36 37 38 37 38 40 40 41 41 43
60 60 59 57 54 45 35 31 30 28 27 24 25 27 26 28 37 37 37 36 37 34 37 37 34 32 33 34 36 37 39 39 41
59 58 57 54 50 41 34 30 29 28 27 23 27 29 30 28 34 33 32 33 31 29 30 28 25 35 34 31 33 35 37 37 38
58 57 55 52 49 43 33 30 27 27 28 28 28 29 27 25 26 28 28 28 26 26 25 23 22 23 32 34 34 35 38 37 38
57 57 54 51 46 37 32 30 30 28 29 28 29 26 25 26 24 28 26 25 26 24 21 19 20 22 23 28 34 35 36 38 39
57 56 54 50 46 40 34 34 35 32 27 26 30 27 27 24 22 24 24 21 24 22 20 20 20 20 22 27 30 35 35 37 40
57 56 54 51 48 47 42 43 44 46 38 29 24 21 26 26 19 21 21 20 19 20 20 20 20 21 24 29 33 34 35 38 41
58 56 54 50 47 47 45 43 42 44 40 36 34 27 24 19 21 18 20 21 20 19 19 20 21 20 23 24 30 33 35 37 40

GFSFLT1_sfc_dewp_051.txt.gz
Dewpoint
64 67 68 67 67 67 66 65 64 63 65 65 65 65 65 63 59 61 63 65 66 67 66 67 67 64 64 65 64 64 64 63 63
64 65 67 66 66 65 64 63 64 64 65 66 65 64 63 61 62 64 65 65 66 67 66 67 67 67 66 66 66 67 67 67 64
65 66 65 65 64 64 64 65 66 66 66 65 64 64 63 62 63 64 62 66 64 65 65 64 64 64 63 63 63 63 65 66 66
64 64 64 64 64 65 66 66 66 65 64 63 64 63 62 61 62 62 61 66 65 64 62 62 62 61 61 61 61 61 61 61 62
66 66 66 64 65 66 66 66 65 62 60 61 64 62 61 60 62 61 62 64 62 61 61 60 60 60 59 59 59 59 59 59 59
63 64 66 66 67 67 66 66 61 61 64 63 61 58 56 57 60 60 65 63 61 61 60 59 59 58 57 57 57 57 56 56 56
63 63 66 67 67 67 66 65 58 53 51 56 55 53 54 56 57 58 63 61 60 59 59 58 57 55 54 53 54 53 53 53 53
63 63 64 65 65 65 65 60 53 47 41 46 50 51 51 50 51 54 62 60 59 57 56 55 53 52 52 52 52 52 52 53 52
64 62 64 65 65 63 61 55 50 41 36 40 46 47 46 46 52 56 61 60 58 55 53 52 51 50 50 51 50 51 51 51 51
65 64 63 64 64 62 57 50 42 36 31 34 41 42 42 48 51 57 60 60 56 52 51 49 47 47 48 49 48 49 50 50 49
64 64 63 63 63 61 56 48 39 35 31 29 32 39 43 46 49 55 56 58 55 51 48 45 44 44 46 46 47 47 47 47 48
62 63 63 63 62 59 53 43 34 32 29 28 28 36 41 45 47 52 52 51 53 50 45 44 42 42 43 42 44 44 43 43 44
62 63 63 63 61 58 51 41 35 33 31 28 28 30 40 42 44 48 47 44 42 46 42 39 41 39 37 39 40 39 40 41 42
61 62 63 62 61 57 49 39 36 33 32 29 29 29 31 39 40 43 45 41 41 39 40 41 38 34 33 34 35 37 38 39 40
61 61 62 61 60 57 47 41 34 34 33 22 27 32 32 31 38 38 38 37 38 36 38 36 34 35 34 32 33 35 37 39 39
62 61 61 60 59 57 50 40 35 33 31 32 32 32 31 29 31 36 34 34 33 31 32 28 26 25 33 33 34 35 39 39 40
61 61 60 59 58 55 49 40 35 34 32 33 34 32 29 29 28 30 31 30 30 28 28 25 25 27 27 30 34 34 35 38 40
61 60 60 58 56 53 49 42 40 37 32 32 34 32 34 29 27 28 29 28 29 28 26 23 24 24 25 29 33 35 36 38 41
60 59 59 58 57 55 51 44 44 43 39 34 29 27 32 34 27 24 26 24 24 26 25 22 23 24 28 30 32 33 34 37 39
59 59 58 56 56 55 51 46 44 45 42 42 34 32 30 25 31 26 25 23 23 23 22 22 22 23 25 27 30 32 33 36 39

GFSFLT1_sfc_dewp_054.txt.gz
Dewpoint
68 68 69 69 68 67 66 65 63 65 65 65 65 65 64 63 60 63 64 64 67 66 66 67 64 63 65 65 64 64 65 63 64
66 66 67 67 66 66 64 64 64 65 65 66 65 64 64 59 61 61 63 64 67 67 66 67 67 66 66 66 67 67 68 66 64
65 65 66 65 65 65 64 64 65 65 66 64 64 64 65 60 60 60 61 66 66 65 64 64 64 63 63 63 63 64 65 65 66
65 66 65 65 64 64 65 66 66 65 64 64 65 64 63 59 59 57 60 66 64 64 62 62 62 61 61 61 61 61 62 62 62
66 66 65 64 65 66 66 66 65 62 61 64 64 63 63 59 60 58 62 64 62 63 61 61 60 60 60 59 59 59 59 59 59
62 64 65 65 67 67 67 65 62 64 64 64 61 61 58 57 57 56 65 62 61 62 60 60 58 57 57 57 57 56 56 56 56
59 62 66 66 67 67 67 63 59 58 55 57 58 55 55 54 55 56 64 61 60 60 59 58 56 54 54 54 54 54 54 53 54
59 60 62 62 64 62 64 60 52 50 49 52 51 52 52 51 52 55 62 61 59 58 56 55 53 52 53 52 53 53 53 53 52
57 56 59 60 61 61 61 58 54 49 46 46 48 48 46 44 47 52 62 60 58 55 54 52 51 51 51 51 51 52 52 52 51
59 59 57 59 60 59 59 57 53 49 44 42 44 42 40 41 44 47 61 61 56 53 53 50 48 49 50 49 49 50 50 50 50
60 61 60 59 59 59 59 56 50 46 41 38 38 38 38 40 42 47 56 60 57 53 50 47 46 46 47 47 47 47 47 47 48
61 60 61 61 60 58 58 56 51 45 39 37 34 36 36 39 40 45 49 53 55 53 47 46 44 45 45 43 44 44 42 42 44
60 60 60 61 61 59 57 55 50 45 40 37 34 33 36 38 39 44 45 46 44 48 47 44 43 41 39 41 40 39 40 40 42
60 59 60 60 61 60 58 54 51 46 41 38 35 33 34 37 37 40 43 43 41 40 45 46 44 38 36 36 36 36 37 39 39
61 59 59 60 61 61 59 54 49 47 43 33 31 34 32 33 37 37 39 39 40 39 37 37 35 37 35 33 34 35 36 39 40
62 61 59 60 60 61 59 55 50 45 42 36 36 34 33 32 31 36 37 37 37 36 36 34 30 30 35 33 33 35 38 38 39
63 62 61 60 60 60 60 56 50 48 41 41 42 39 34 31 31 32 33 34 34 32 32 30 29 28 27 32 33 31 33 37 39
64 63 62 62 61 60 61 58 51 48 42 41 44 42 43 34 32 31 32 32 32 31 30 29 27 27 26 30 33 35 35 37 39
63 63 63 62 62 60 60 58 54 52 44 39 35 34 37 36 34 29 31 30 28 31 31 27 26 26 27 31 34 33 33 35 38
62 61 63 62 62 61 59 57 54 53 50 44 39 36 36 32 36 35 30 30 28 28 28 26 24 24 27 29 31 31 32 34 37

GFSFLT1_sfc_dewp_057.txt.gz
Dewpoint
69 70 70 69 69 67 66 64 64 65 65 65 65 64 62 64 60 65 66 66 67 68 68 66 65 67 67 66 66 66 64 63 64
68 68 68 68 67 66 64 63 64 65 65 65 64 63 64 61 61 64 64 65 67 67 67 67 66 66 65 66 67 67 67 66 67
66 67 67 67 66 64 64 64 64 65 66 64 64 63 64 59 57 61 63 66 65 64 64 64 64 64 64 63 64 65 65 65 65
66 66 66 65 65 65 65 65 66 65 64 64 64 63 64 60 57 58 63 66 64 64 62 61 61 61 62 61 61 62 62 62 62
67 67 66 65 65 65 66 66 65 63 63 64 64 63 64 57 57 61 62 63 63 62 62 61 61 60 60 59 59 59 58 59 59
62 64 66 66 66 66 67 65 62 64 65 64 63 63 57 56 55 60 65 62 62 61 61 59 58 58 57 57 56 56 56 56 56
56 62 65 66 68 68 67 64 62 63 57 58 60 57 54 53 54 61 64 61 61 60 59 58 55 55 55 55 55 55 55 55 55
58 61 61 61 64 62 64 61 55 52 53 54 53 52 51 50 51 61 64 61 59 59 57 55 53 53 53 54 54 54 54 53 53
55 56 59 60 60 61 61 60 55 52 49 49 49 50 49 46 49 58 63 61 58 57 55 54 52 52 52 52 53 53 52 52 53
55 55 56 58 59 59 58 58 56 52 48 47 48 47 43 41 44 53 62 61 58 55 54 52 50 51 51 50 52 51 51 51 51
58 57 56 56 57 58 57 57 55 51 48 45 45 43 40 39 42 50 58 60 58 54 53 50 49 50 49 49 49 48 47 48 48
59 59 59 59 57 57 57 56 54 51 47 44 42 42 39 40 39 45 55 56 57 56 51 48 47 47 47 46 46 45 43 43 44
59 60 59 59 59 59 57 57 55 51 47 44 41 40 40 38 38 44 47 53 50 53 51 48 46 47 44 43 43 41 41 40 40
59 59 59 58 60 60 59 57 55 52 49 46 43 40 41 39 37 41 45 47 47 46 51 49 49 44 41 42 40 39 39 38 38
61 60 59 58 59 60 60 58 56 53 50 43 40 42 39 40 40 39 40 43 45 44 43 43 42 43 39 38 37 36 36 38 40
62 62 60 60 59 60 60 59 56 53 51 47 42 42 40 36 37 40 40 42 42 42 41 38 36 38 40 40 38 35 37 38 38
63 63 62 60 60 60 60 60 57 53 51 45 45 43 39 37 35 36 37 38 39 38 37 37 35 36 34 38 37 34 32 35 38
65 64 63 63 61 60 60 60 58 54 50 47 47 47 45 38 37 35 35 35 37 36 36 34 33 32 34 38 35 35 37 36 37
64 64 63 63 63 61 61 60 60 56 50 47 45 48 43 43 35 36 35 35 33 35 36 32 32 32 34 37 37 38 34 34 36
64 63 63 63 63 62 62 61 60 57 53 47 48 44 41 40 44 36 33 33 34 34 33 32 29 29 33 35 36 35 33 33 35

GFSFLT1_sfc_dewp_060.txt.gz
Dewpoint
70 70 70 70 70 67 65 66 66 66 66 66 65 63 64 65 65 66 67 66 68 68 67 67 68 68 68 68 68 66 64 65 63
69 69 68 68 67 66 64 65 65 66 66 65 64 63 65 62 62 64 65 65 67 67 67 67 66 65 65 66 67 67 67 67 67
68 68 68 67 66 65 65 65 65 66 66 65 63 64 64 61 62 63 64 66 64 64 63 63 64 64 63 64 65 66 66 65 66
67 67 67 66 66 65 65 66 66 66 65 64 64 64 64 62 60 62 63 66 64 62 62 62 62 62 62 62 61 62 62 63 63
68 67 67 66 66 66 67 67 65 64 65 64 64 64 64 58 60 61 63 64 63 63 61 61 60 60 60 59 58 59 59 59 59
65 65 66 67 67 67 67 66 64 64 65 64 64 63 59 56 60 62 65 63 63 62 60 59 59 58 57 57 56 56 56 57 57
60 63 65 67 67 68 68 65 65 63 61 60 62 59 57 54 61 62 64 62 61 61 60 57 56 56 56 56 56 56 56 55 55
61 62 61 62 65 65 65 62 58 56 57 57 56 56 52 52 59 63 64 61 61 59 58 55 55 55 55 55 55 54 54 54 55
58 61 61 61 63 62 64 61 57 54 49 53 52 51 50 47 57 62 63 62 59 58 56 55 54 54 54 54 54 53 53 54 53
56 57 59 60 61 60 61 60 58 52 49 48 48 49 47 42 48 60 62 62 59 57 56 54 53 53 53 53 52 52 52 52 52
57 56 56 58 59 59 59 58 56 53 50 47 46 46 43 39 45 60 60 61 60 56 55 53 53 53 52 52 51 49 49 49 49
59 58 57 57 57 57 57 57 56 52 49 46 44 43 40 39 40 57 58 58 58 58 55 52 52 52 51 51 50 47 45 45 45
59 59 59 59 58 57 58 57 56 52 48 45 42 41 41 39 39 44 56 54 52 57 56 53 51 50 51 49 48 46 44 42 42
60 59 60 59 59 59 58 57 56 53 49 45 44 40 40 39 37 42 47 53 51 49 55 54 53 51 48 48 47 45 43 41 40
60 59 59 59 59 60 59 58 56 53 51 45 43 40 40 40 39 39 43 45 46 46 46 46 47 52 47 47 46 44 43 41 41
62 60 60 59 58 58 59 58 56 54 51 46 42 41 39 37 39 39 40 42 43 43 41 41 40 43 47 45 44 43 41 41 40
62 62 61 61 60 59 60 59 58 54 52 45 42 39 39 38 36 37 39 40 42 40 40 37 37 37 39 41 44 42 41 39 39
65 64 62 62 61 60 59 59 59 56 53 46 45 45 42 37 38 35 37 37 39 39 38 37 35 35 36 40 40 40 37 39 41
63 63 64 63 63 62 61 60 60 58 52 51 46 49 43 39 33 35 35 35 35 37 37 35 33 31 37 39 39 39 40 39 39
63 63 62 63 63 63 62 61 61 61 57 52 50 49 43 38 40 34 34 35 35 36 35 34 31 29 34 37 41 42 39 38 39

GFSFLT1_sfc_dewp_063.txt.gz
Dewpoint
70 70 71 70 69 67 66 66 66 66 66 65 64 64 65 65 65 66 67 66 68 67 68 67 68 68 68 68 67 65 65 64 64
70 70 69 69 68 66 66 65 66 66 66 64 63 64 65 61 65 65 64 65 67 67 67 66 66 65 66 67 68 67 67 67 67
69 69 68 67 66 65 65 65 66 66 65 63 63 64 64 61 63 63 63 66 64 64 63 63 63 63 64 65 66 66 66 66 66
68 68 68 67 66 65 65 66 66 66 65 63 63 64 64 60 63 63 64 66 63 63 62 62 62 62 62 62 62 63 64 63 63
68 68 68 67 67 67 66 66 66 65 64 63 65 64 63 61 62 62 64 65 63 62 61 61 60 60 59 59 59 59 60 60 60
66 65 67 67 68 68 67 66 65 66 65 64 64 63 59 59 61 62 66 64 63 61 60 60 59 58 58 57 57 57 57 57 57
64 64 66 67 68 68 68 66 65 63 62 60 62 59 57 60 61 62 65 63 62 61 59 57 57 57 57 57 56 56 56 56 56
62 63 64 64 65 66 66 64 62 59 59 57 57 57 55 59 61 63 64 62 62 61 58 56 56 56 56 56 55 55 55 55 55
61 61 60 61 64 63 62 61 58 55 55 56 54 55 50 57 60 62 63 63 61 60 58 56 56 56 56 56 55 54 55 54 54
60 61 60 60 62 62 63 62 60 55 51 52 52 50 49 50 59 61 62 63 61 59 57 56 56 55 55 55 54 54 53 54 53
57 58 59 60 60 61 61 61 60 55 50 48 47 48 47 41 55 60 60 62 62 58 57 56 56 55 55 55 53 52 52 52 53
57 56 57 58 59 60 59 59 57 54 51 48 46 45 43 39 56 59 59 59 60 60 57 56 55 55 54 55 53 51 50 49 49
58 57 57 57 57 58 57 57 56 53 50 46 45 43 42 39 45 58 58 57 55 59 59 56 54 54 54 54 53 50 48 47 46
60 59 59 59 58 57 57 57 56 53 50 46 44 41 41 40 38 49 56 55 53 53 58 58 56 55 54 53 52 50 48 45 45
60 60 59 59 59 59 58 57 57 54 51 46 44 42 40 40 40 39 52 55 52 51 50 52 52 55 54 51 52 50 48 45 44
61 60 60 59 58 58 59 58 56 55 51 47 44 41 40 39 40 39 41 48 51 49 48 48 45 49 54 52 51 49 48 46 45
64 62 60 60 59 58 59 58 57 56 53 49 42 39 39 39 38 39 39 41 44 46 45 43 41 42 44 45 52 49 47 46 46
64 64 63 61 61 59 59 59 58 57 55 51 47 42 39 38 38 37 38 38 42 42 42 41 39 38 40 44 48 49 45 44 43
63 63 63 62 61 61 61 60 60 59 56 54 51 50 45 40 38 40 42 42 41 42 40 39 37 36 38 43 44 47 43 41 43
63 62 61 61 61 61 62 61 61 60 59 55 54 51 51 45 41 39 42 42 42 41 39 37 35 33 36 39 41 43 42 43 42

GFSFLT1_sfc_dewp_066.txt.gz
Dewpoint
68 70 71 70 68 67 66 65 66 65 65 64 64 65 66 67 66 66 67 66 67 68 68 68 68 68 68 66 65 65 65 63 67
68 71 70 69 67 67 66 66 66 66 65 64 64 64 65 65 65 64 65 66 68 67 67 66 66 66 68 68 67 67 67 67 67
69 69 68 67 66 66 65 66 66 66 64 64 64 65 64 64 63 63 63 66 65 64 63 62 63 63 64 65 67 67 67 67 66
69 69 68 67 66 66 65 66 66 65 64 63 64 64 64 63 63 62 63 66 64 63 63 62 62 62 62 62 63 65 65 64 64
69 68 68 67 67 66 66 66 66 65 64 64 63 64 64 62 62 63 64 65 63 62 62 61 61 60 60 60 61 61 62 62 61
66 66 67 68 68 67 66 66 66 67 65 64 63 62 59 61 61 63 66 64 63 61 60 60 59 59 58 58 58 59 59 59 58
65 64 66 68 68 68 67 67 66 64 61 60 62 58 57 61 61 62 66 63 63 61 60 58 57 57 57 57 57 57 57 57 57
63 62 64 64 65 66 67 65 63 59 59 57 57 57 56 60 61 62 66 63 63 61 59 57 57 56 56 56 56 55 56 55 56
61 61 62 62 63 63 63 62 60 57 57 57 55 55 52 59 60 62 64 64 62 61 58 57 56 56 56 55 55 55 55 55 55
60 60 60 60 61 62 62 61 60 57 54 54 55 53 50 57 60 60 62 64 63 61 59 58 57 56 56 56 55 55 55 55 54
60 60 60 59 61 62 62 62 61 59 54 50 52 50 50 50 58 59 60 63 63 61 60 58 57 57 56 56 55 54 54 54 54
58 59 60 59 60 61 61 61 61 60 55 50 47 47 48 43 54 59 59 60 62 62 59 58 57 57 56 57 55 54 53 53 53
57 57 58 59 59 60 59 59 58 58 56 52 48 46 45 42 46 57 58 58 58 60 60 59 57 57 56 57 55 53 51 51 51
57 57 56 57 57 58 58 58 57 55 53 51 48 45 43 41 39 55 57 56 56 55 59 60 59 58 56 56 56 53 51 49 49
60 59 58 58 58 57 57 56 57 56 54 50 47 45 42 42 40 41 56 57 55 53 53 56 55 58 57 56 55 54 51 49 47
62 61 60 60 59 58 58 57 56 56 53 48 46 43 43 40 41 40 42 55 55 53 52 52 51 52 57 57 55 54 53 49 47
63 62 61 60 60 59 59 58 57 56 54 52 46 46 44 41 40 40 39 42 53 53 51 50 48 47 50 51 55 55 52 51 49
63 63 62 61 60 59 58 58 57 58 54 53 54 44 44 40 40 39 39 39 43 49 51 49 47 44 46 49 51 54 53 49 49
62 62 62 62 60 60 60 59 59 58 56 54 55 51 47 43 42 40 44 45 44 45 46 46 45 42 42 45 48 51 50 48 47
62 61 61 61 60 60 60 59 58 59 59 55 54 54 52 49 45 48 43 46 47 48 45 42 41 41 41 42 46 49 47 46 45

GFSFLT1_sfc_dewp_069.txt.gz
Dewpoint
69 70 71 69 68 66 65 65 64 64 65 65 65 67 68 65 61 65 65 65 68 68 68 68 68 68 65 64 65 65 63 67 67
70 71 69 68 67 66 65 65 65 65 64 64 65 66 67 65 64 64 66 67 67 66 66 65 66 67 67 67 67 65 66 67 67
70 70 68 67 67 66 65 65 65 65 64 64 64 67 66 63 63 63 64 67 65 63 63 63 63 63 65 66 67 67 67 66 67
69 69 68 67 66 66 65 65 65 65 64 63 64 65 65 62 62 62 63 66 63 62 62 61 61 61 62 61 61 66 66 66 65
69 68 68 67 67 66 65 65 66 65 64 64 64 64 65 61 62 62 63 65 63 62 61 61 60 60 60 60 60 60 63 63 62
67 67 67 68 68 67 66 66 67 67 65 64 64 62 61 61 62 62 66 64 62 61 60 60 59 58 58 58 58 59 59 59 58
65 65 66 68 68 68 67 67 67 65 60 59 62 58 57 60 61 62 67 64 63 61 60 59 58 57 57 56 56 57 56 56 57
63 62 63 64 65 65 66 65 63 60 58 58 57 57 56 60 61 62 66 64 63 62 59 58 57 56 56 56 56 55 55 55 55
61 61 61 62 63 62 63 62 61 59 57 57 55 56 54 59 60 61 65 66 63 62 59 58 57 57 56 56 55 55 55 55 55
60 60 60 61 61 61 62 61 60 58 55 55 56 54 53 55 59 60 62 64 65 62 61 58 57 57 57 56 55 55 55 54 54
59 60 60 60 60 61 61 62 60 59 58 54 52 53 52 50 57 59 59 63 64 64 62 60 58 58 57 57 56 55 55 55 54
59 59 60 59 59 60 61 60 60 60 59 56 51 50 50 49 52 58 58 60 62 64 61 61 59 58 58 57 56 55 55 55 54
59 59 59 60 59 59 59 60 59 59 59 57 53 49 47 47 44 55 58 58 59 61 63 62 60 59 58 57 57 55 54 54 54
60 58 58 59 59 59 59 59 58 57 57 57 56 51 47 45 43 47 56 57 58 57 60 61 61 61 58 58 57 56 54 52 51
61 60 58 57 57 57 57 58 57 57 57 55 54 51 48 44 43 41 52 56 57 56 55 57 58 60 60 58 57 57 55 52 51
61 61 60 60 58 57 57 56 56 56 54 51 50 47 46 44 43 42 41 53 57 56 54 54 55 55 59 59 58 57 57 54 50
63 61 61 61 60 59 58 58 56 55 54 53 48 51 49 43 43 41 41 40 52 55 55 54 53 53 53 55 58 58 56 56 52
63 63 62 61 59 59 58 57 57 58 56 54 56 48 47 44 43 41 41 40 43 52 54 54 53 52 51 53 54 57 57 55 54
61 62 62 61 60 59 59 58 58 56 57 53 54 54 48 48 48 43 43 45 44 44 48 52 51 51 50 50 52 54 55 53 53
54 57 60 60 60 59 59 58 57 57 57 55 54 54 54 49 48 50 49 46 46 48 47 48 49 50 50 49 50 53 54 53 52

GFSFLT1_sfc_dewp_072.txt.gz
Dewpoint
69 71 70 69 67 65 64 64 65 65 65 66 67 68 67 63 61 64 63 64 68 68 68 68 68 66 65 65 65 63 64 67 67
70 71 69 68 67 65 64 65 65 65 65 65 66 67 66 64 64 65 65 66 66 66 66 64 65 67 67 67 66 65 67 67 67
71 69 68 67 66 65 65 65 65 65 64 65 66 67 66 63 63 63 64 67 65 64 63 62 62 64 64 66 67 67 67 67 67
70 69 68 67 66 65 65 65 65 65 64 64 64 66 65 61 62 62 63 66 63 62 62 62 61 61 62 62 61 65 66 66 66
70 69 69 67 66 66 65 65 65 65 65 64 63 64 65 60 61 62 62 64 62 62 61 61 60 59 60 61 60 58 62 63 63
66 66 67 68 68 66 65 65 66 67 64 64 64 62 61 60 61 62 64 63 62 60 60 59 59 58 58 58 59 59 58 58 59
66 65 66 68 68 67 66 66 67 65 60 59 61 58 59 60 61 61 65 64 62 61 59 58 58 57 56 56 57 57 57 56 57
63 62 63 63 64 64 65 64 63 60 58 57 57 58 56 57 60 62 64 65 63 62 60 58 57 56 56 56 55 55 55 55 55
61 61 60 61 62 62 62 62 61 60 58 56 55 56 56 55 59 60 63 66 64 63 61 59 57 56 56 56 55 55 55 55 55
60 60 60 60 60 61 61 61 61 59 58 56 55 55 54 53 58 59 61 64 65 63 63 60 58 57 57 56 55 55 55 55 54
59 59 59 60 60 60 60 60 60 59 58 58 55 53 54 53 53 58 59 62 64 65 62 62 60 59 58 57 56 55 56 55 54
58 59 59 59 59 59 59 60 60 59 59 58 58 54 51 52 50 54 58 59 62 64 63 61 61 60 59 58 58 56 56 56 55
60 59 59 59 59 59 58 59 58 59 58 58 58 56 51 49 48 49 56 58 59 61 64 64 62 61 60 59 58 57 56 55 55
61 60 59 59 59 58 58 58 58 57 58 58 58 57 54 51 48 46 49 55 58 58 60 62 63 63 61 60 59 58 57 55 54
62 61 59 58 58 58 57 58 57 58 58 57 57 55 55 52 49 47 44 51 55 57 57 57 59 61 62 60 59 59 58 56 54
61 61 59 58 57 58 57 57 57 56 55 54 54 52 51 50 49 48 44 45 53 55 56 56 56 57 61 61 60 59 58 58 55
63 61 60 59 59 58 58 56 55 55 55 55 51 52 52 47 46 45 43 42 47 54 55 54 54 54 55 57 60 60 58 58 58
62 63 62 61 60 60 59 57 57 57 55 55 56 52 50 47 47 44 43 42 42 48 53 54 54 54 54 55 56 59 60 57 59
56 60 61 62 60 59 59 58 57 57 57 53 54 53 51 51 51 47 44 44 42 43 48 52 53 53 53 53 53 55 57 57 58
52 53 55 60 60 59 59 58 57 56 56 54 54 54 53 50 50 51 49 47 46 45 45 46 50 51 51 51 52 55 56 59 59

GFSFLT1_sfc_dewp_075.txt.gz
Dewpoint
70 70 69 67 66 64 65 66 66 66 66 67 68 67 66 63 64 63 65 67 67 66 66 68 67 66 66 65 65 64 67 67 67
70 70 68 67 66 65 65 65 66 66 66 66 68 67 67 65 65 66 67 67 67 66 65 64 67 67 67 67 66 67 67 67 67
71 69 68 67 66 65 65 65 65 65 65 66 68 67 65 64 65 65 65 67 65 64 63 62 63 62 64 66 67 67 67 66 66
70 69 68 67 66 65 66 66 66 65 65 64 65 66 65 63 63 62 63 66 63 63 62 62 61 61 63 63 62 65 66 66 65
70 69 69 67 66 66 65 66 66 66 65 63 63 63 65 62 63 62 63 63 62 62 61 60 60 59 60 61 61 60 60 62 62
67 67 67 68 67 66 65 65 66 66 64 63 63 63 62 63 62 62 63 64 62 61 60 59 59 58 58 59 59 59 59 59 57
67 66 66 68 68 67 66 66 67 64 62 59 61 59 62 62 62 62 64 65 63 61 60 58 58 57 56 56 57 57 57 57 57
66 66 66 67 65 66 66 66 65 64 61 59 57 59 59 59 60 62 64 66 65 63 61 59 57 56 56 56 55 55 55 55 55
65 64 64 64 65 65 65 65 65 64 61 59 57 56 57 58 58 60 63 64 65 64 63 60 58 57 57 56 56 55 55 55 55
62 63 63 63 63 63 64 64 63 63 61 59 57 56 56 55 56 57 61 63 65 65 63 63 60 59 58 57 57 55 56 55 55
60 60 61 61 61 62 62 62 62 61 61 61 59 57 55 55 55 55 58 62 63 65 64 63 62 60 59 59 58 56 56 55 55
60 60 59 60 60 61 61 61 61 61 61 61 60 60 59 56 54 54 55 58 61 63 64 63 62 61 61 60 59 58 56 56 55
62 61 61 60 60 60 60 60 59 60 60 59 59 60 60 58 56 53 52 54 55 59 62 64 63 62 61 61 60 59 58 56 56
64 62 62 62 61 61 60 59 59 59 58 58 59 59 59 59 58 56 54 53 54 56 59 62 64 64 63 61 60 60 59 58 56
64 63 63 62 61 61 60 60 60 59 58 58 58 58 58 58 58 56 55 54 53 54 56 57 58 62 63 62 61 60 60 59 57
64 64 63 62 61 61 61 60 59 59 59 57 57 57 57 56 55 56 55 53 52 53 54 55 55 56 61 62 62 61 60 60 59
65 64 63 62 61 60 60 59 59 58 58 58 56 55 55 54 52 52 50 50 48 49 52 53 54 55 56 58 61 62 60 59 59
64 65 64 64 62 62 62 60 59 59 59 58 58 55 53 50 52 50 48 47 46 47 49 51 52 53 55 56 57 59 61 59 59
54 56 60 63 63 62 62 61 61 60 59 57 57 57 54 53 52 52 50 48 48 49 48 48 50 52 53 54 55 56 58 59 60
51 52 53 57 60 61 62 61 60 60 59 58 57 57 56 54 53 51 53 53 52 51 50 50 49 49 51 53 54 54 55 57 59

GFSFLT1_sfc_dewp_078.txt.gz
Dewpoint
70 69 67 66 65 65 67 66 67 67 68 68 67 66 64 63 63 64 66 66 67 67 65 68 66 68 67 66 64 67 67 67 67
70 69 67 66 65 65 66 66 66 66 67 68 67 67 66 63 64 65 65 65 66 65 64 64 64 66 67 67 67 67 67 67 66
70 69 68 66 65 65 66 66 66 66 66 68 67 66 66 63 63 63 62 66 64 63 63 63 64 64 65 65 67 67 67 66 66
70 69 68 67 66 66 66 66 65 65 65 66 67 66 65 59 59 58 60 65 63 62 62 61 61 61 63 63 62 63 65 65 64
70 69 69 67 66 65 66 66 65 65 64 63 62 65 65 60 61 60 61 63 63 62 61 60 60 59 60 60 61 61 61 60 60
66 67 67 68 66 66 65 66 66 65 64 62 61 62 60 60 60 59 63 64 62 61 60 59 58 58 58 58 59 59 59 60 59
65 66 67 67 67 66 65 66 66 64 58 58 60 57 59 60 60 60 63 65 64 62 60 59 58 57 56 56 57 57 57 57 57
63 63 64 64 65 63 64 64 62 59 58 57 55 56 56 56 58 61 63 64 66 64 62 60 59 57 57 56 56 56 55 55 55
58 58 59 60 60 61 61 60 60 61 59 56 55 54 54 54 56 58 63 64 65 66 64 63 60 59 58 57 57 55 55 55 55
59 58 57 57 57 58 58 59 58 57 56 56 56 55 54 53 54 55 62 63 64 65 65 64 63 61 60 59 58 56 56 55 55
60 60 59 58 58 59 59 59 59 57 56 55 56 56 56 56 55 54 55 62 63 64 65 65 64 63 61 60 59 58 56 56 56
61 61 61 60 59 59 59 60 60 59 59 58 57 57 58 58 58 57 55 56 61 63 64 64 64 63 63 61 60 59 58 57 57
63 62 62 62 61 61 61 60 60 59 59 59 58 58 59 59 58 58 57 57 56 60 62 63 64 64 63 62 61 60 60 58 57
64 63 62 62 62 62 62 61 61 60 60 59 59 59 59 59 58 58 59 59 58 57 60 62 63 64 64 62 62 61 61 60 59
64 63 63 63 62 62 62 62 62 61 61 59 58 59 59 59 59 57 56 57 58 57 58 58 57 61 63 63 62 61 61 61 60
64 64 64 64 63 62 62 62 62 62 61 60 59 59 59 57 57 57 55 56 56 55 55 56 55 55 61 62 63 62 61 61 61
66 66 66 65 65 64 63 62 62 61 61 59 59 56 52 52 55 55 55 54 54 52 52 53 53 54 53 55 60 62 62 61 60
64 65 65 65 65 64 64 64 62 61 62 61 59 56 50 54 55 54 53 52 52 50 51 51 52 53 53 54 55 58 59 61 61
55 56 58 61 63 63 63 64 63 62 61 61 60 59 57 55 53 54 54 52 52 53 52 51 51 52 52 54 54 56 56 57 59
52 52 54 55 58 59 61 61 62 61 60 60 59 58 59 57 55 53 54 55 53 52 51 51 51 52 52 52 53 53 54 55 57

GFSFLT1_sfc_dewp_081.txt.gz
Dewpoint
69 67 66 65 67 67 67 67 67 68 68 67 66 65 64 65 63 66 66 65 66 65 64 67 67 68 68 67 67 68 68 67 67
69 67 66 65 66 66 67 66 66 67 68 68 68 66 67 63 64 65 64 64 65 63 63 64 65 66 66 68 68 67 67 67 66
69 68 66 65 65 66 66 66 66 66 68 68 67 66 67 61 60 60 62 66 64 63 63 62 62 64 65 65 66 67 67 66 65
69 69 67 66 65 65 66 66 65 65 65 67 66 66 66 60 58 56 61 66 63 62 62 61 61 61 62 63 63 62 63 63 63
70 69 69 67 66 66 66 65 65 65 64 63 62 63 65 60 59 58 62 63 63 62 61 60 60 59 59 60 61 61 61 61 60
65 67 68 68 67 66 65 65 66 65 64 62 61 63 59 57 58 58 65 64 62 62 60 59 59 58 58 58 59 59 59 60 60
64 66 67 67 67 66 65 66 66 65 58 60 61 57 56 57 58 60 64 64 64 63 61 59 58 57 57 57 57 58 57 58 58
63 64 64 65 65 64 65 65 63 59 57 55 54 54 54 54 56 61 64 63 65 65 64 61 59 58 57 57 56 56 56 56 56
57 56 58 59 59 58 60 58 58 59 58 55 53 53 53 53 54 57 64 64 64 65 65 65 62 60 58 58 57 56 55 55 55
56 56 55 55 55 56 56 57 56 55 54 54 53 53 53 53 54 55 62 63 64 64 65 64 65 63 61 59 59 57 56 56 55
58 59 59 57 57 57 58 58 58 57 56 54 53 54 55 55 55 56 57 62 63 63 64 65 64 64 64 62 60 59 58 57 56
60 60 60 60 58 58 59 59 60 59 59 58 57 57 56 58 57 58 58 59 62 63 63 64 64 64 64 63 62 61 60 59 58
63 62 62 62 62 61 60 60 60 60 59 59 59 58 59 58 58 59 59 59 58 61 63 63 63 64 64 63 63 62 62 61 59
63 63 62 62 62 62 62 61 61 61 60 60 61 60 60 60 59 59 59 60 60 60 61 62 63 64 64 64 63 63 63 63 61
64 63 63 63 63 62 62 61 62 63 62 60 60 61 60 60 60 59 58 57 58 60 60 60 59 61 62 62 63 62 62 63 62
63 63 63 64 63 62 62 62 62 63 63 62 61 60 60 59 59 58 57 56 57 58 57 57 57 57 62 62 62 62 63 62 62
65 65 65 66 66 64 64 63 63 62 63 61 60 58 56 53 53 57 56 55 56 55 54 54 54 56 56 57 58 57 60 62 62
64 64 65 65 65 65 64 64 64 62 63 62 60 56 52 54 56 56 55 54 54 54 54 53 54 54 55 56 56 57 56 58 59
56 56 57 59 63 63 63 63 63 63 61 63 61 61 59 56 53 55 55 54 53 55 54 51 52 53 53 55 53 53 54 55 57
51 52 53 54 56 58 58 59 59 62 61 61 60 59 59 58 56 53 54 56 55 53 53 53 52 50 51 50 50 50 52 54 55

GFSFLT1_sfc_dewp_084.txt.gz
Dewpoint
66 65 66 68 68 67 68 68 68 68 68 67 66 65 67 68 65 64 66 64 64 63 66 67 67 67 68 69 68 68 67 67 66
67 66 66 67 67 67 67 67 68 68 68 68 67 67 68 64 64 62 63 63 63 63 62 62 64 66 66 67 68 68 67 66 66
68 66 66 66 67 67 67 66 66 68 68 67 67 67 66 61 58 62 63 66 63 62 62 61 61 64 65 65 64 65 66 65 64
69 68 66 66 66 66 66 66 66 65 66 66 66 66 66 61 58 61 63 66 63 62 61 61 60 60 61 62 63 63 63 62 62
70 69 68 67 66 67 66 66 65 65 63 63 64 63 63 61 58 62 63 64 63 62 61 60 59 59 59 60 60 60 60 61 60
67 67 68 68 67 66 66 66 66 66 64 64 63 62 59 59 58 62 66 64 63 62 61 60 59 59 58 58 58 58 58 59 59
66 66 67 68 67 67 66 66 67 65 61 61 62 59 58 57 58 62 66 64 64 63 61 60 59 58 57 57 57 57 57 57 58
66 66 65 65 65 65 66 66 65 62 59 58 57 56 54 54 56 63 65 64 64 65 65 62 60 58 57 57 57 56 56 56 56
61 63 64 64 64 63 64 63 63 60 59 57 54 53 53 53 54 62 64 65 64 64 65 65 64 61 59 58 57 56 56 55 55
56 56 56 57 56 56 57 57 56 56 56 55 54 53 53 53 53 56 63 64 64 64 65 65 65 65 62 60 59 58 57 56 55
58 58 58 56 56 57 58 58 58 57 56 54 53 53 54 55 55 55 59 63 64 64 63 64 65 64 65 64 62 60 59 58 58
59 60 60 59 58 57 58 59 59 59 59 58 58 57 56 57 57 57 57 60 62 63 63 63 64 65 64 64 64 62 62 60 59
61 61 62 62 61 60 60 60 60 60 59 59 59 59 58 58 58 58 59 59 58 61 64 65 64 64 64 64 64 64 63 62 61
63 63 63 62 62 62 62 61 61 61 61 60 60 60 60 60 59 59 59 59 60 59 62 62 63 64 63 63 64 64 64 64 63
64 64 63 63 63 62 62 61 61 61 62 61 61 61 61 60 60 59 59 58 57 59 58 60 60 61 63 62 63 62 63 63 62
63 64 63 63 63 62 62 61 62 62 62 61 60 61 60 60 59 59 58 57 56 55 55 55 56 56 61 62 62 61 61 62 63
66 65 65 65 65 65 64 64 62 62 61 61 60 57 55 56 55 57 55 53 54 53 52 52 53 54 55 56 57 58 58 59 59
61 62 64 64 64 64 64 63 62 61 62 61 59 54 52 54 55 54 54 53 53 52 52 52 52 53 53 52 52 54 54 56 58
55 55 55 56 61 63 62 62 62 62 58 59 61 59 57 53 52 54 54 53 53 53 53 51 50 50 50 49 50 52 53 55 57
52 52 53 53 55 56 57 57 57 57 58 58 58 57 57 57 56 53 54 55 54 52 52 49 48 48 48 47 48 50 52 53 54

GFSFLT1_sfc_dewp_087.txt.gz
Dewpoint
66 67 68 68 68 68 68 69 69 68 67 67 67 68 68 67 63 63 64 61 62 63 64 66 66 67 67 68 68 68 67 66 65
66 67 68 67 68 67 67 68 68 68 68 68 68 67 66 64 62 62 62 61 62 62 61 62 65 66 66 67 67 66 66 65 64
66 66 67 67 67 67 67 67 68 68 67 67 66 67 66 60 62 63 63 65 63 62 61 60 61 64 65 65 64 64 64 63 63
67 67 66 67 67 67 66 66 66 66 66 65 65 65 65 60 62 62 63 66 63 62 61 60 60 60 60 62 62 62 62 62 61
69 68 68 67 67 66 66 66 65 64 63 63 63 62 63 59 60 62 63 65 63 62 61 60 59 59 59 59 59 60 60 60 60
67 67 67 68 67 67 66 66 66 65 64 64 63 62 58 58 60 62 66 65 63 62 61 60 59 58 58 58 58 58 59 59 59
66 66 67 68 67 67 66 67 67 65 61 60 62 59 57 56 60 62 67 65 64 64 62 60 59 58 58 57 57 57 57 57 58
65 65 65 65 65 65 66 65 65 63 61 59 59 58 56 54 55 62 66 65 64 64 65 63 61 59 58 57 57 56 56 56 56
64 64 64 64 64 63 63 63 63 63 61 57 56 53 53 53 53 61 64 66 64 64 65 65 65 63 60 59 58 57 56 55 55
60 62 63 63 63 62 62 61 60 59 58 58 56 53 53 53 53 57 63 64 65 64 63 64 65 66 64 62 61 59 58 57 56
57 57 57 56 56 55 56 57 57 57 56 55 53 53 53 54 54 55 59 63 64 65 63 63 64 64 65 65 64 62 61 60 59
58 59 59 58 57 57 58 58 59 59 59 59 58 57 56 55 57 57 57 60 62 64 63 63 64 64 65 64 64 64 63 61 60
59 60 61 61 59 58 59 59 59 59 59 59 59 59 58 58 58 58 58 58 58 61 64 65 65 64 64 64 64 64 64 64 62
62 62 62 62 62 61 61 61 61 60 60 61 61 60 60 60 60 59 59 59 60 58 61 63 63 64 63 63 63 63 63 63 63
63 63 63 63 62 62 62 62 61 61 61 62 61 61 61 61 60 60 59 59 58 59 59 60 59 61 62 62 62 62 62 62 62
64 64 63 64 63 62 63 62 62 62 62 61 60 60 60 60 60 60 59 56 56 55 54 55 54 56 59 59 60 60 60 60 60
65 65 65 65 65 65 64 64 63 62 62 60 60 55 54 55 55 56 55 53 54 53 52 52 53 54 54 54 55 56 57 58 59
60 61 63 63 64 63 64 63 62 61 62 61 59 54 51 53 54 54 53 53 52 52 52 51 52 52 50 50 51 53 54 56 58
54 54 54 55 57 58 60 60 60 61 59 59 59 57 58 54 51 54 54 53 53 52 51 50 50 49 47 49 51 52 53 54 55
52 52 53 53 54 55 55 55 55 55 55 56 57 56 57 55 54 50 52 54 53 51 49 48 48 47 47 47 49 50 52 54 54

GFSFLT1_sfc_dewp_090.txt.gz
Dewpoint
67 67 67 68 67 67 68 68 68 68 68 68 68 67 68 65 62 62 62 60 62 62 65 65 66 68 68 68 68 67 66 65 64
67 68 68 68 68 68 68 68 68 68 68 68 67 66 67 62 62 62 61 60 62 62 62 64 65 65 65 66 66 66 65 63 64
67 67 68 68 67 67 68 68 68 68 67 67 66 66 64 61 62 62 62 65 62 62 61 60 62 64 64 64 64 64 63 62 62
66 67 67 67 67 67 66 66 67 66 65 64 64 64 64 60 61 62 63 66 62 61 61 60 59 59 60 61 61 61 61 61 61
68 68 68 67 67 66 66 66 65 64 62 63 63 63 62 60 61 62 63 65 63 61 60 60 59 59 59 59 59 59 60 60 59
66 66 67 68 67 66 66 65 65 65 64 63 63 62 57 57 59 61 66 65 64 62 61 60 59 58 58 58 58 58 58 59 58
66 65 66 68 67 67 67 66 66 64 60 60 61 59 57 56 59 61 67 65 64 64 62 61 59 58 58 57 57 56 57 57 57
65 64 65 65 64 64 65 65 64 62 60 59 59 58 57 54 56 61 66 66 64 64 65 63 62 60 58 58 57 56 55 56 56
64 63 63 63 63 62 62 62 62 62 62 60 57 57 54 54 53 59 65 66 64 64 64 65 66 64 62 60 59 58 57 55 55
63 63 63 62 62 62 62 62 62 62 62 60 57 56 53 52 53 55 62 65 66 64 63 63 64 65 65 64 62 60 59 58 57
61 61 62 62 61 62 59 61 59 56 56 55 54 53 53 53 53 54 56 64 65 66 63 63 63 64 65 65 64 63 62 61 60
57 57 57 57 56 55 56 57 59 59 59 59 59 58 57 56 55 56 56 58 63 64 64 64 64 64 64 64 63 64 64 63 62
58 59 60 60 58 57 57 58 58 59 59 59 59 59 59 58 58 58 58 58 58 61 64 65 65 65 63 63 63 63 63 63 64
60 60 60 61 62 60 59 60 60 60 60 60 61 61 61 60 60 60 59 59 60 59 60 63 63 63 63 62 63 63 62 62 63
62 62 62 62 62 62 62 61 62 62 61 62 62 61 61 61 61 60 60 59 58 59 60 59 59 62 62 62 62 61 61 60 60
63 63 63 63 63 62 62 62 61 62 62 61 60 59 59 59 60 60 59 58 56 56 56 54 56 57 58 58 59 59 59 59 59
64 64 65 65 65 64 64 64 63 62 62 59 58 54 54 55 54 55 55 54 54 53 53 53 55 53 52 53 55 55 57 58 58
62 63 64 64 64 63 63 63 62 61 61 59 57 55 51 53 54 54 53 53 53 52 52 52 51 49 50 51 52 53 54 56 57
56 55 55 55 57 57 58 58 57 57 56 56 58 57 58 55 51 53 53 53 53 51 50 50 48 47 49 51 51 52 53 54 55
52 52 53 53 54 54 55 55 54 55 54 55 55 55 55 54 55 52 51 52 50 48 47 48 47 47 47 48 49 51 52 53 54

GFSFLT1_sfc_dewp_093.txt.gz
Dewpoint
67 67 68 69 69 68 68 68 68 68 69 68 67 68 66 64 61 61 62 59 61 63 65 64 65 68 68 67 66 66 64 63 64
67 67 67 67 67 67 68 68 68 68 69 67 67 67 65 61 61 61 60 60 62 61 63 64 63 63 63 64 63 63 63 62 63
67 67 67 68 67 68 68 68 68 68 68 66 66 67 64 61 61 62 62 64 62 61 61 60 62 63 63 63 63 63 62 62 61
67 67 68 67 67 67 68 67 67 67 66 64 64 64 64 60 61 62 62 65 62 61 60 59 59 59 59 60 60 60 60 60 59
68 68 68 67 67 67 66 65 64 63 62 63 64 63 62 59 61 61 62 64 62 61 60 60 59 59 59 59 59 60 60 59 59
66 66 67 68 67 66 66 65 64 65 63 63 63 61 57 57 59 61 64 64 62 62 61 60 59 58 58 58 58 58 58 58 57
65 65 66 68 67 67 66 66 66 64 60 59 60 58 56 56 58 61 64 65 64 63 62 61 59 58 57 57 57 56 57 57 57
64 64 64 64 64 63 64 63 63 61 60 59 59 59 57 55 55 61 64 66 65 64 65 64 62 60 59 58 57 57 56 56 56
63 63 63 62 63 61 61 62 61 61 61 60 60 57 56 54 53 55 63 66 65 64 64 65 66 65 63 61 60 59 57 56 55
63 62 62 62 61 61 61 61 61 61 61 61 60 57 55 53 53 53 59 65 66 65 64 64 64 66 66 65 63 62 61 59 58
63 62 62 61 61 62 61 60 61 60 56 56 55 54 54 53 53 54 54 61 65 65 65 64 64 64 64 64 64 64 64 62 61
62 61 60 61 61 60 58 56 58 58 58 59 59 58 58 57 56 55 56 57 61 64 64 64 65 64 62 62 63 63 63 64 64
58 57 57 58 57 56 56 57 58 58 59 59 59 59 60 59 58 58 58 58 58 60 64 65 65 64 63 63 63 64 63 63 63
58 59 60 61 60 58 58 58 59 59 60 60 61 61 61 61 60 60 60 60 60 60 60 62 63 63 63 63 63 62 61 61 61
60 60 60 61 61 61 61 60 61 61 61 61 62 61 61 61 60 59 60 60 59 58 59 59 60 62 62 62 61 60 60 59 59
61 62 62 62 62 62 62 62 62 62 62 61 58 58 57 57 57 56 57 59 58 58 57 58 58 58 59 59 59 58 58 58 58
63 63 63 64 64 64 64 63 63 62 62 58 58 53 54 54 54 54 54 54 54 53 54 54 53 52 52 54 55 56 56 56 57
64 64 64 64 64 63 63 63 62 61 59 58 56 53 50 52 54 54 53 52 52 52 52 50 49 49 50 51 52 53 54 55 56
60 60 59 58 59 58 58 58 58 57 56 55 56 56 56 53 51 53 53 53 51 50 50 48 47 48 49 50 51 52 53 53 54
56 55 54 55 56 55 55 55 54 54 54 54 54 53 53 54 53 48 50 50 48 47 47 47 47 47 48 48 50 52 54 53 53

GFSFLT1_sfc_dewp_096.txt.gz
Dewpoint
67 67 68 68 68 68 68 68 68 69 68 68 68 67 65 63 60 60 61 59 62 64 64 64 65 65 65 65 63 63 63 62 62
67 68 69 69 68 68 68 68 68 69 67 67 68 65 64 61 60 60 60 60 62 62 63 64 63 63 63 63 63 63 63 62 61
66 66 67 67 68 68 68 68 68 68 66 67 67 65 63 61 61 61 61 64 62 61 61 60 61 62 62 62 62 62 61 61 60
66 66 67 67 67 68 68 68 68 67 65 64 65 65 63 60 61 61 62 65 62 61 61 60 60 60 60 60 60 60 60 60 59
67 68 68 67 67 67 67 66 66 64 63 63 63 63 62 59 61 61 62 63 61 61 61 60 60 60 60 59 59 59 60 59 59
66 66 67 68 67 66 66 65 64 63 62 63 63 60 57 56 58 61 63 65 62 61 61 60 59 58 58 58 58 58 58 58 58
64 64 66 67 67 67 65 65 65 62 59 59 60 57 56 55 56 60 63 65 64 63 62 61 60 59 58 58 57 56 57 57 56
63 63 64 63 64 63 64 62 62 59 59 58 58 58 57 56 54 58 63 65 66 64 65 64 63 62 60 59 58 57 56 56 56
62 62 62 62 62 60 60 61 60 60 60 59 59 58 56 54 54 54 60 64 66 65 64 65 66 66 65 62 61 60 59 57 56
62 62 61 61 61 61 60 60 60 60 60 60 60 59 57 55 53 53 57 61 65 66 65 64 64 65 65 64 63 63 62 61 60
62 62 61 61 61 61 61 60 60 60 58 56 56 55 54 54 53 54 54 59 62 65 65 65 65 64 62 62 62 62 63 64 63
63 62 62 61 61 60 60 58 57 58 58 58 59 59 58 58 57 56 56 57 60 62 64 64 65 64 62 62 63 64 64 64 64
63 62 61 60 59 59 56 56 57 58 58 58 59 59 59 60 59 58 58 59 59 60 63 64 65 62 62 63 64 63 62 62 62
61 59 58 58 58 57 56 57 58 58 59 59 60 61 61 61 61 60 60 60 60 60 60 61 63 64 64 64 63 61 60 60 60
59 58 59 60 61 60 59 58 60 60 61 62 62 61 61 60 58 58 59 59 60 59 59 60 61 63 63 62 61 59 58 57 57
58 59 59 61 61 61 61 62 61 62 62 61 57 57 57 56 55 55 55 57 57 57 58 58 57 58 59 59 58 57 57 57 56
61 61 61 62 63 63 62 62 62 62 62 58 57 52 53 53 54 53 54 53 53 53 53 52 52 52 53 54 55 55 56 56 56
63 63 64 63 63 62 62 63 61 58 58 57 56 52 49 50 53 53 53 52 52 52 50 48 49 50 50 51 52 53 54 55 55
62 63 63 62 61 61 60 60 59 58 56 55 56 54 54 53 50 52 51 51 50 50 49 48 48 49 49 50 53 54 54 54 55
59 59 58 58 58 58 58 56 55 55 54 54 53 52 52 52 51 48 48 49 48 48 47 47 47 47 48 49 52 53 54 55 53

GFSFLT1_sfc_dewp_099.txt.gz
Dewpoint
67 67 69 69 69 68 69 69 69 69 69 68 67 64 64 63 61 61 61 61 64 64 65 65 65 65 64 64 64 63 63 62 61
67 68 68 68 68 69 68 69 69 68 68 68 66 64 63 60 61 61 61 61 62 63 63 63 63 63 63 63 63 62 62 61 60
66 68 69 68 68 68 68 69 69 67 68 68 65 64 63 60 61 62 62 64 62 62 61 61 61 60 60 61 61 61 61 60 60
67 67 67 67 67 69 69 69 68 66 65 67 66 65 63 60 61 60 62 65 62 62 62 61 61 60 60 60 61 61 60 60 60
66 68 68 68 68 68 68 68 66 64 64 63 63 64 62 61 62 61 62 63 62 61 61 61 60 60 60 60 60 60 60 59 59
65 66 67 68 67 67 66 65 64 63 63 63 62 61 58 58 59 61 62 65 62 62 61 60 59 59 59 59 59 59 59 58 58
65 65 67 68 67 67 65 65 64 61 58 60 60 58 58 57 57 60 63 64 64 63 62 61 60 59 59 58 58 57 57 57 56
65 66 65 65 64 64 64 64 62 59 59 60 59 59 59 56 56 57 63 64 65 65 65 65 64 62 61 60 59 58 57 56 56
64 64 64 64 64 63 63 63 63 62 62 62 61 60 58 57 56 56 58 62 65 66 65 65 65 66 65 64 63 62 60 59 57
64 64 64 64 64 63 62 63 62 62 62 61 60 60 59 58 57 56 58 59 62 65 65 65 65 64 64 63 64 64 64 63 62
65 64 64 63 63 63 62 62 62 61 61 58 57 57 57 56 56 56 57 59 60 63 64 65 65 64 62 62 63 63 63 63 64
64 64 64 63 62 62 62 62 59 59 59 59 59 60 59 60 59 59 59 59 60 60 63 65 65 64 62 62 64 64 63 63 64
65 65 64 64 63 62 61 59 57 58 59 59 60 60 60 60 60 60 60 61 60 62 63 63 64 63 62 63 64 62 61 61 61
65 64 64 62 60 59 59 57 58 59 59 59 60 61 61 62 61 60 61 61 61 61 62 61 62 64 63 64 63 61 59 58 57
64 64 62 60 59 58 58 57 58 59 61 61 62 62 61 60 58 57 57 58 60 61 61 61 62 63 64 62 61 59 58 58 57
61 61 61 60 60 60 60 60 60 62 63 62 59 59 58 56 56 56 57 58 58 59 60 60 59 58 59 59 59 58 57 57 57
62 61 60 59 60 61 62 63 63 62 63 59 58 55 53 55 55 55 54 55 56 57 56 55 54 54 54 55 55 55 55 56 56
64 63 63 62 63 64 64 64 62 61 61 60 58 54 52 54 55 54 53 53 54 53 52 52 51 51 51 52 53 54 55 55 56
63 64 64 64 63 62 61 61 61 61 59 59 58 58 57 54 51 54 53 52 51 51 50 50 49 49 49 52 53 55 56 56 55
59 60 60 59 59 58 58 58 58 58 58 58 57 56 56 58 55 50 52 51 50 50 49 49 48 48 49 50 52 54 54 56 53

GFSFLT1_sfc_dewp_102.txt.gz
Dewpoint
68 69 70 70 70 69 69 70 69 69 68 66 64 64 63 64 57 58 59 58 63 65 65 65 65 64 64 63 63 62 61 61 62
68 69 69 69 69 69 69 69 69 69 68 66 64 63 62 57 58 59 59 60 62 62 62 62 62 62 62 61 62 61 61 61 61
67 68 69 69 69 69 69 69 67 68 69 66 64 63 63 59 59 60 59 63 62 62 62 61 61 61 61 61 61 61 60 60 61
68 69 69 69 69 69 69 69 67 67 68 66 65 64 62 59 59 58 59 65 62 62 62 61 61 61 61 61 61 61 60 60 60
68 68 67 67 69 69 69 68 67 65 64 64 64 64 63 59 61 60 61 63 62 61 61 61 61 60 60 60 60 60 60 59 60
64 66 68 69 69 68 68 67 65 64 64 62 62 62 58 56 58 60 63 65 63 61 60 60 60 59 59 59 59 59 59 58 58
62 65 67 68 68 67 66 65 63 61 56 57 59 55 57 55 55 58 62 63 65 64 63 62 61 60 59 59 58 57 57 57 56
62 63 63 62 63 60 61 61 56 55 56 57 56 57 56 55 55 56 61 64 65 66 65 66 64 63 62 61 60 59 58 57 56
59 59 59 59 57 57 58 57 56 56 58 58 57 57 57 56 56 56 58 59 64 65 66 65 65 66 65 65 64 63 62 61 59
58 58 59 60 61 60 59 59 59 59 59 59 58 58 57 56 57 57 58 59 61 63 65 65 65 64 64 63 64 64 64 64 63
61 61 61 61 61 60 59 59 59 59 59 58 57 57 57 57 58 58 58 60 61 62 64 65 65 64 63 62 63 63 63 63 63
63 62 63 62 61 60 60 60 59 58 58 58 58 59 58 58 58 57 58 60 60 60 63 64 65 64 63 64 64 63 62 61 62
64 64 62 61 61 60 59 58 57 57 58 58 59 59 58 57 57 59 58 59 59 61 63 63 63 64 64 64 64 62 60 59 59
64 64 63 62 61 60 59 58 56 57 59 58 57 57 58 59 58 57 58 58 59 58 62 61 61 64 63 64 63 61 58 57 58
65 63 63 62 61 59 59 57 58 59 58 58 57 58 59 59 57 56 55 56 58 59 60 61 62 63 64 63 61 59 58 57 57
64 64 63 62 60 58 58 59 59 60 60 60 57 57 57 56 56 56 56 57 58 60 61 61 60 59 60 60 59 57 57 56 56
63 63 62 62 61 59 59 60 62 61 60 56 57 53 51 54 55 56 55 56 57 58 58 58 58 58 56 56 55 55 56 55 56
65 64 64 63 62 60 62 63 63 60 61 60 56 53 49 52 54 55 54 54 55 55 55 55 54 53 52 53 54 55 55 56 56
64 64 64 64 64 64 64 63 63 62 61 61 59 59 58 53 48 54 54 53 53 54 53 53 52 51 51 53 54 55 56 56 55
63 64 63 60 59 58 58 58 58 58 59 60 59 57 57 56 53 47 49 53 52 52 52 52 51 50 51 51 53 54 55 58 56

GFSFLT1_sfc_dewp_105.txt.gz
Dewpoint
69 70 71 69 69 70 70 69 69 68 65 64 63 62 62 65 57 57 59 59 63 65 64 64 63 63 62 62 62 62 61 62 62
70 70 70 69 70 70 70 69 69 68 66 64 63 62 63 56 58 58 59 61 62 63 62 62 62 62 62 62 62 61 61 61 61
69 70 69 70 69 69 69 68 68 69 67 65 63 61 63 58 58 58 60 64 63 63 62 62 62 62 62 62 61 61 61 61 60
68 69 66 70 69 69 69 68 68 69 67 65 64 62 63 59 58 57 60 65 63 62 62 62 62 62 62 61 61 61 60 61 60
68 68 69 70 70 70 69 68 66 68 68 66 65 64 64 58 59 59 61 63 62 61 61 61 61 61 61 61 61 61 60 59 59
65 66 67 69 70 69 69 68 66 65 65 63 64 63 58 54 57 59 66 64 63 61 61 60 60 60 59 59 59 59 59 58 58
61 65 67 68 68 68 68 66 64 63 58 57 60 55 55 54 54 60 64 63 65 64 63 62 61 60 60 59 59 58 58 57 56
63 65 64 65 65 63 64 62 59 56 54 55 54 55 55 53 54 59 64 63 64 66 66 66 65 64 63 62 61 60 59 58 57
60 61 61 59 59 57 58 56 54 54 54 55 55 55 55 55 55 57 61 62 63 64 65 66 66 67 66 66 65 63 63 62 61
58 57 58 58 56 56 56 56 56 54 54 57 56 56 56 55 56 57 60 61 61 62 64 65 66 66 65 65 64 64 64 64 64
58 58 58 59 59 58 57 57 58 56 57 56 56 56 56 56 57 58 58 61 62 62 63 64 65 66 65 63 63 63 63 63 63
60 60 61 60 59 57 57 57 57 57 56 57 57 57 56 57 57 58 58 60 61 62 62 64 65 65 64 63 64 64 62 61 60
61 63 62 61 59 58 58 58 57 56 56 57 57 57 58 57 56 57 57 59 58 62 64 63 63 64 64 64 63 62 60 58 58
63 63 62 60 60 59 58 57 56 55 57 57 57 57 56 56 56 56 56 58 59 59 62 62 62 63 64 65 63 60 59 58 58
64 63 62 61 60 59 58 57 57 56 58 56 55 57 59 60 57 56 55 56 58 59 60 62 61 63 64 64 62 60 58 57 57
64 63 63 65 61 59 58 58 57 59 60 58 59 58 56 56 56 56 55 57 57 58 60 62 61 60 61 61 60 58 57 56 56
63 64 65 65 64 62 59 58 59 60 61 59 58 53 52 55 54 55 55 55 56 57 58 58 59 59 57 56 56 55 55 56 57
66 65 65 65 65 64 63 63 62 62 63 62 56 53 52 52 55 55 54 54 55 56 56 56 56 55 54 54 54 56 57 57 57
66 66 65 64 64 64 61 62 63 63 61 62 61 61 58 54 48 55 55 54 53 54 54 54 53 52 53 53 54 56 57 57 55
65 65 64 63 61 60 59 59 58 59 60 60 59 57 57 57 54 50 51 54 53 53 53 53 52 51 53 53 54 55 56 59 58

GFSFLT1_sfc_dewp_108.txt.gz
Dewpoint
70 71 71 69 69 69 68 68 67 65 64 63 61 62 64 64 57 58 63 61 63 63 63 63 62 62 62 62 62 62 62 62 62
71 71 69 69 71 71 69 69 68 66 65 63 62 62 64 59 58 59 61 61 63 63 63 63 62 62 62 62 62 62 62 61 62
71 70 69 69 70 69 69 69 68 67 65 64 62 64 64 59 59 60 62 65 63 63 63 62 62 62 62 62 62 61 61 61 61
70 68 66 70 70 69 69 68 69 68 66 64 63 64 64 61 59 60 62 65 63 63 63 63 62 62 62 62 62 61 61 61 60
68 67 68 70 70 70 69 68 69 69 66 66 66 64 64 59 59 61 63 64 62 62 62 62 62 61 61 61 61 61 60 60 60
65 66 67 68 69 70 69 67 67 66 65 64 64 63 60 58 59 62 66 65 63 62 62 61 61 60 60 60 60 60 59 58 59
64 66 67 68 68 69 69 67 66 64 60 59 61 57 57 54 57 62 67 66 65 64 63 62 61 61 60 60 59 59 58 58 57
64 66 66 66 65 66 66 65 62 60 59 57 55 54 55 55 55 62 65 64 64 65 66 66 65 64 63 62 62 61 60 59 58
64 63 64 64 64 62 63 62 60 58 54 54 55 55 55 55 56 60 63 65 64 64 65 66 66 67 65 66 65 64 63 62 62
61 62 62 60 59 58 59 58 55 54 53 54 56 55 55 55 56 56 61 62 63 62 63 64 65 66 64 65 63 64 64 63 64
59 58 58 57 57 57 57 57 57 56 56 56 57 56 56 55 56 56 58 62 62 63 63 64 64 65 64 64 63 64 63 62 62
58 57 58 59 59 58 57 56 57 57 57 56 56 56 56 56 56 58 58 60 61 63 64 63 64 64 64 64 64 64 62 60 59
60 61 60 60 59 58 58 58 57 57 56 57 57 57 58 57 56 56 56 58 59 62 64 65 62 62 64 64 64 62 60 59 58
62 63 62 61 60 59 58 58 57 56 56 57 58 58 57 57 56 55 56 57 57 58 62 62 62 63 64 65 64 60 59 59 58
63 63 63 61 60 60 59 58 58 56 56 57 56 56 57 58 58 56 55 57 58 59 60 61 60 63 64 65 62 61 59 57 56
63 63 63 63 60 60 59 58 57 57 58 58 58 57 57 57 55 55 55 56 57 58 61 61 60 59 61 63 61 59 57 56 56
64 63 64 64 64 62 60 57 58 59 60 58 58 54 53 55 53 54 54 55 56 57 58 59 59 58 56 56 57 56 55 56 57
64 64 65 64 64 63 63 63 62 59 61 61 58 52 50 52 55 54 54 53 55 56 56 55 55 54 53 54 54 56 56 56 57
64 64 64 63 63 62 61 62 62 62 61 61 61 59 58 52 49 54 54 53 53 54 54 54 52 52 52 53 54 56 58 58 56
63 63 63 62 62 60 60 60 60 60 59 60 58 55 55 56 55 52 51 53 53 53 52 53 52 51 52 52 53 55 56 57 58

GFSFLT1_sfc_dewp_111.txt.gz
Dewpoint
71 71 71 70 70 68 67 65 65 64 64 63 63 64 65 62 60 61 62 60 63 63 63 63 63 63 63 63 63 63 62 63 63
71 71 70 70 70 69 68 66 65 64 63 63 63 64 65 59 60 60 61 61 63 63 63 63 63 63 63 63 62 62 62 62 62
71 70 70 71 70 69 68 68 66 65 64 63 63 64 64 60 60 61 62 65 64 64 63 63 63 63 63 63 62 62 62 62 62
70 69 70 70 70 70 69 69 68 66 65 63 64 64 64 59 60 61 62 66 64 64 63 63 63 63 63 63 62 62 62 61 61
69 67 68 70 70 70 69 69 69 67 66 65 65 64 63 59 60 61 63 64 63 63 63 62 62 62 62 62 62 61 60 61 60
64 63 67 69 70 70 68 68 69 68 66 65 64 63 59 59 61 62 66 64 63 62 61 61 61 61 61 60 60 60 60 59 59
62 63 66 68 69 69 69 67 66 64 60 60 61 58 56 55 61 63 67 65 64 64 63 62 61 61 61 60 60 59 59 59 59
63 64 66 66 66 67 67 66 64 61 60 58 56 54 53 55 60 63 66 66 66 66 66 66 65 64 63 62 62 61 60 60 59
64 63 65 65 64 64 64 63 62 60 59 57 56 54 55 55 58 62 64 66 64 65 65 66 67 67 66 66 65 64 63 62 63
63 62 63 63 63 62 62 62 60 58 55 53 54 55 54 55 56 58 62 64 65 64 64 64 65 66 66 64 64 64 64 63 62
62 62 62 62 60 61 60 59 57 55 54 53 56 56 56 56 56 55 58 62 63 64 63 64 64 64 64 64 64 64 63 61 60
61 61 61 60 58 57 57 57 57 57 56 56 57 56 56 56 56 55 56 59 62 64 64 64 64 64 64 64 65 64 61 59 58
58 58 58 58 59 58 57 57 57 57 57 57 57 57 57 57 56 58 58 58 59 62 64 65 62 63 63 65 65 63 60 59 58
59 59 60 59 59 58 58 58 57 56 56 56 57 57 58 57 56 55 56 58 58 60 62 62 62 63 63 65 64 61 59 58 57
61 62 61 61 59 59 59 57 58 57 56 56 56 57 57 58 57 55 57 57 59 60 61 60 61 63 65 65 63 60 59 57 56
62 62 62 62 60 59 58 58 57 57 57 58 57 57 56 57 55 55 56 57 58 60 60 60 59 59 62 64 62 59 57 56 56
62 63 63 63 62 60 59 58 58 58 58 57 58 55 54 55 54 55 55 56 57 57 60 59 58 56 57 57 57 57 57 57 58
64 64 64 64 64 62 62 62 61 59 61 61 58 54 51 53 54 54 54 54 56 56 56 56 56 54 54 54 54 56 56 58 58
63 63 64 63 62 62 62 62 62 61 60 60 61 60 58 51 52 54 54 54 54 55 54 53 53 53 52 53 55 56 57 59 58
63 63 63 62 62 61 60 60 60 60 60 59 57 57 57 57 54 52 52 53 53 54 53 53 52 52 52 51 53 55 56 57 57

GFSFLT1_sfc_dewp_114.txt.gz
Dewpoint
72 71 71 70 69 67 67 67 66 65 65 65 66 65 66 63 61 61 62 60 63 64 64 64 64 64 63 63 63 63 63 62 62
72 71 70 70 69 67 65 64 64 63 64 64 65 65 64 59 60 60 61 61 64 64 64 64 64 64 63 63 63 62 62 62 62
71 71 70 70 68 67 66 65 64 64 64 64 64 65 63 60 60 61 62 65 64 64 64 64 64 64 64 63 63 62 62 62 62
71 70 70 69 69 69 68 67 66 65 64 63 64 65 63 60 61 61 62 66 64 64 64 63 63 63 63 63 62 62 62 62 62
69 70 70 71 71 70 70 68 67 66 65 64 64 64 63 59 60 61 62 65 63 63 63 63 62 62 62 62 62 61 61 61 60
66 65 68 70 70 70 69 70 69 67 66 65 64 62 59 59 61 62 66 64 63 62 62 62 61 61 61 61 61 61 60 60 59
63 61 66 69 69 69 69 69 69 66 62 60 61 57 55 56 60 62 67 65 64 63 63 62 62 61 61 60 60 60 59 59 59
62 61 65 67 66 67 67 66 63 61 59 58 56 54 53 55 60 63 67 66 65 66 65 65 64 64 63 63 62 61 60 60 60
62 61 65 65 65 65 64 63 62 61 60 59 58 55 54 55 59 61 65 67 65 66 66 67 67 67 66 66 65 64 63 62 63
62 60 61 64 63 63 63 62 62 60 59 58 56 56 54 55 57 59 62 65 67 65 65 65 65 66 66 65 65 65 65 63 62
61 61 61 62 63 62 62 61 61 59 57 54 53 55 55 55 55 56 58 63 65 66 64 64 64 64 64 64 64 65 64 61 60
62 61 61 62 61 62 60 60 59 57 55 54 54 56 56 56 55 55 55 59 62 64 64 64 64 64 63 64 65 64 63 60 59
62 61 61 62 60 59 59 58 57 57 57 56 56 56 56 56 56 56 56 57 57 61 64 65 63 63 63 64 65 64 61 59 58
61 61 61 60 59 58 58 57 57 57 56 56 57 57 57 57 56 57 57 58 59 59 62 62 62 63 62 65 65 63 60 58 58
60 59 59 59 59 58 58 57 58 57 56 55 55 57 58 58 57 55 57 57 58 60 60 60 60 63 64 65 64 61 59 58 56
59 59 59 59 58 58 58 57 57 57 56 56 56 57 56 57 56 56 57 58 59 60 59 59 58 59 63 64 62 61 58 56 56
59 60 61 61 61 59 58 58 58 57 58 57 57 55 55 55 54 55 56 57 58 60 59 58 57 57 57 58 59 58 57 57 58
61 62 63 63 62 61 60 60 59 58 59 60 58 54 52 53 54 54 55 56 56 57 58 57 56 55 54 54 55 55 56 58 59
63 63 63 63 63 61 61 62 61 61 58 59 60 58 57 52 52 54 54 55 55 55 55 55 54 53 52 54 54 56 57 58 59
62 62 62 62 62 62 61 61 60 61 60 59 58 58 58 56 54 52 54 54 54 55 54 53 52 52 52 52 53 55 56 57 58

GFSFLT1_sfc_dewp_117.txt.gz
Dewpoint
70 69 69 68 68 68 66 68 67 65 67 65 68 68 67 64 62 62 62 61 64 64 64 64 64 64 64 63 63 63 63 62 62
71 71 70 69 67 67 67 66 65 64 65 65 66 65 63 60 60 60 61 62 64 65 65 64 64 64 64 63 63 63 63 62 62
71 70 70 68 67 66 65 64 63 65 65 65 65 64 63 60 60 61 62 66 64 64 64 64 64 64 64 63 63 62 63 62 62
71 70 69 68 67 66 66 64 64 65 64 64 65 64 63 59 61 61 62 66 64 64 64 64 64 64 63 63 62 62 62 62 62
70 70 69 69 69 69 68 66 65 65 65 65 65 64 63 59 60 61 62 65 64 64 63 63 62 62 62 62 62 61 61 60 60
68 67 68 70 70 70 69 68 67 67 65 64 63 62 59 59 60 61 65 65 63 63 63 62 62 61 61 61 61 61 60 60 60
66 66 68 70 70 69 70 70 69 66 62 60 61 57 57 58 60 61 66 65 64 63 63 62 62 61 61 61 60 60 60 59 59
64 63 67 67 66 67 68 68 66 62 59 58 56 54 53 55 60 61 66 66 65 65 64 64 64 64 63 63 62 61 60 60 60
61 60 64 66 67 65 64 63 62 60 59 58 58 55 53 55 60 61 65 67 66 66 67 67 67 67 66 66 65 64 63 62 63
61 60 63 64 66 65 63 62 61 60 60 59 58 57 55 54 57 59 62 65 67 66 65 65 65 66 66 65 66 65 65 64 62
62 60 60 63 65 64 64 62 61 61 60 58 56 54 55 54 55 57 59 63 65 67 65 65 64 64 64 64 65 65 64 62 59
62 60 60 61 63 62 62 61 60 59 57 56 54 53 55 55 55 55 56 58 62 65 65 65 64 64 63 63 65 65 63 60 58
62 61 60 61 62 62 61 60 59 58 57 55 55 55 56 56 56 56 55 56 57 60 63 65 64 63 63 63 64 65 62 59 58
62 61 61 62 61 60 60 59 58 57 57 57 57 57 57 56 56 56 56 56 57 58 61 62 62 62 62 63 64 65 61 59 57
62 61 61 61 61 60 59 58 57 57 56 56 56 57 57 58 57 56 57 58 58 59 60 60 60 62 63 65 65 63 60 59 57
63 61 61 60 60 59 58 57 57 57 57 55 55 57 57 57 57 56 57 57 59 59 59 59 58 60 64 65 64 62 60 58 57
63 61 60 60 60 59 58 57 57 57 57 56 56 54 55 55 55 56 57 57 59 59 58 58 57 56 57 59 61 60 58 57 58
62 62 61 60 60 59 59 59 58 57 58 58 57 53 52 53 54 54 56 56 57 58 57 57 56 55 54 55 55 56 56 57 59
62 62 61 61 61 61 60 60 59 59 58 59 59 57 54 52 51 54 54 56 55 56 57 57 55 53 53 53 54 56 57 57 58
62 62 62 62 62 61 61 60 60 60 59 58 59 58 58 56 52 50 52 54 55 56 56 56 53 53 52 52 54 56 55 57 57